GFSSGP_925_thetae_000.txt.gz
Theta_e
309 313 328 335 343 342 340 339 338 333 332 330 329 328 328 327 325 329 329 328 326 337 337 331 327 327 327 327 329 330 333 337 340 339 337 335 333 331 330 330 330 329 329 330 330 331 336 336 335
321 326 336 340 348 347 341 338 334 331 330 329 328 327 327 326 325 327 329 328 327 331 336 338 331 326 324 327 331 335 338 339 338 339 338 337 334 334 333 332 332 331 331 330 329 330 331 334 336
332 337 340 342 345 343 339 335 331 330 329 328 328 327 326 328 325 326 330 329 329 330 331 333 334 332 328 329 335 339 338 337 337 338 336 335 335 335 334 334 334 333 332 331 330 330 331 335 335
339 337 338 341 338 336 336 333 331 330 328 328 327 326 327 326 326 327 328 327 327 327 329 332 329 328 326 329 340 340 338 339 336 336 335 333 333 332 332 333 334 333 333 332 329 330 334 335 336
336 335 339 341 338 337 336 333 331 328 327 327 326 325 328 327 326 327 327 326 326 325 327 330 328 326 325 325 339 339 339 338 337 335 335 334 334 334 333 333 332 332 332 332 330 330 333 335 335
334 334 337 337 334 334 334 332 329 327 327 327 326 326 330 328 327 326 326 326 325 326 325 328 330 326 324 322 320 327 331 333 332 330 331 332 331 331 330 330 330 330 331 332 331 328 329 332 335
334 335 336 335 334 333 333 332 330 329 326 326 326 325 328 329 326 326 326 326 326 325 326 325 326 327 324 322 322 323 323 323 322 322 324 327 328 328 328 329 330 330 331 332 331 328 328 329 333
332 333 333 333 334 333 333 332 331 330 327 327 326 325 325 329 327 327 325 325 324 324 323 324 323 322 322 327 328 327 324 326 327 325 326 327 326 326 327 329 330 330 332 332 331 330 328 328 330
331 333 334 333 332 331 331 331 331 330 328 328 327 325 326 327 327 325 325 323 323 323 323 322 322 322 324 325 328 326 327 329 327 327 326 325 325 326 327 328 330 330 331 331 330 329 330 328 330
331 333 332 332 331 329 329 329 329 329 329 329 327 325 325 325 325 325 325 325 324 323 323 323 321 324 327 328 326 327 327 328 327 326 325 325 325 325 326 327 328 330 330 330 330 330 330 328 329
331 332 331 332 331 328 327 327 328 328 329 328 326 326 326 324 325 325 324 324 324 324 324 322 323 325 328 329 328 327 327 327 327 326 324 323 324 324 326 326 327 327 329 328 329 329 329 328 325
331 331 331 331 330 327 325 326 329 328 328 327 326 325 326 327 326 326 325 324 324 324 323 325 327 329 330 331 330 327 327 326 324 327 326 325 326 327 327 326 326 326 327 327 327 328 328 326 324
332 331 331 330 328 327 326 327 329 327 327 327 325 325 325 327 327 326 325 324 324 325 323 327 329 329 332 331 329 329 328 327 327 327 327 326 324 326 326 326 326 325 326 326 326 327 327 326 322
331 331 329 329 328 327 327 328 328 328 327 326 325 325 325 326 327 327 326 325 325 325 324 328 329 330 330 330 329 330 329 329 327 326 327 326 324 325 326 325 325 325 325 325 326 328 328 328 325
329 330 328 328 328 327 328 328 328 328 327 327 327 327 327 326 324 327 326 325 326 324 326 328 329 328 329 330 330 329 329 328 328 327 327 323 324 325 327 325 324 324 324 324 324 327 328 329 329
328 329 329 328 329 328 328 329 328 328 329 329 327 327 327 328 327 326 326 326 327 324 327 328 328 327 329 330 330 330 329 330 329 329 325 324 320 326 327 325 325 323 324 324 325 326 328 330 327
328 330 328 329 329 329 329 329 328 328 329 331 329 329 327 328 330 327 326 327 327 325 327 329 329 329 330 330 330 330 331 332 330 329 324 321 320 327 327 325 326 325 324 324 325 327 329 330 330
329 328 328 329 330 329 329 329 329 329 329 331 331 330 330 329 330 327 326 327 326 325 327 329 329 330 331 329 330 331 333 334 331 330 325 322 322 328 328 326 325 327 324 325 326 328 329 328 330
327 327 329 331 330 330 331 333 331 329 329 330 331 331 331 331 330 328 326 327 325 326 328 330 330 330 330 328 330 331 333 330 330 329 329 327 327 326 327 327 326 326 326 325 327 327 328 331 330
325 328 329 328 328 328 328 330 330 329 330 330 329 329 331 332 330 330 328 328 326 326 327 330 330 330 329 330 331 332 333 333 332 330 329 329 328 327 328 327 326 326 327 327 328 327 329 330 331
327 328 329 329 328 328 329 331 331 329 329 328 329 328 329 333 331 331 331 330 327 327 327 329 329 329 330 332 331 331 332 332 334 331 330 328 328 328 328 328 327 326 328 329 328 328 329 332 331
329 327 328 328 328 329 329 334 332 329 330 328 326 329 330 333 332 331 331 331 328 326 326 328 329 329 331 330 330 331 331 333 332 331 331 329 329 328 328 328 327 327 328 326 327 329 327 330 331
327 327 328 328 329 328 328 331 328 330 330 328 325 326 331 333 332 331 331 330 327 326 327 327 328 328 331 331 331 332 333 332 332 329 331 328 328 329 328 328 328 326 326 327 329 328 329 330 331
326 327 327 327 327 333 329 330 329 329 327 325 325 325 331 332 332 331 330 329 327 324 326 328 329 327 331 331 330 332 332 332 333 329 329 329 329 327 328 328 327 327 327 329 330 328 329 331 333
326 329 330 333 331 333 328 330 331 329 326 325 324 327 333 333 331 331 331 330 327 324 325 327 329 327 327 330 330 331 330 329 331 329 328 329 329 328 327 328 329 331 329 331 331 330 329 331 334
328 330 328 337 333 331 331 332 328 326 326 325 325 328 334 332 332 331 331 329 326 325 324 325 328 326 326 327 330 330 331 328 328 325 327 327 329 329 328 329 329 329 330 330 331 329 331 331 331
328 328 326 328 328 330 329 330 330 328 325 325 327 333 335 333 332 332 331 328 327 326 324 325 327 326 326 327 330 329 332 331 331 327 324 328 329 328 328 329 330 331 330 329 329 330 331 332 330
329 326 327 327 332 337 329 330 329 328 327 329 332 334 337 333 331 331 330 329 327 325 324 325 327 326 325 326 328 328 331 332 330 332 331 327 329 329 329 329 330 331 330 330 332 332 331 330 328
328 328 327 329 328 333 334 330 330 331 333 337 334 336 336 333 330 331 330 329 326 324 325 325 327 324 325 325 326 328 331 331 331 332 329 327 328 329 330 328 331 331 331 330 332 332 331 330 329
328 328 329 330 334 330 329 331 332 332 330 333 335 335 333 331 330 329 329 329 324 324 326 326 327 323 324 324 325 327 331 331 332 331 331 328 327 330 330 331 330 332 332 331 331 331 329 329 329

GFSSGP_925_thetae_003.txt.gz
Theta_e
309 309 313 327 337 338 341 340 336 334 328 326 326 326 326 323 327 336 330 332 338 335 328 325 325 325 325 326 326 328 331 333 335 339 339 338 336 330 330 333 332 331 330 330 330 330 330 335 336
312 318 323 335 343 348 343 338 337 327 326 325 327 326 325 325 330 328 328 334 334 335 333 331 328 326 326 324 327 330 334 335 335 336 337 338 337 336 335 335 334 334 333 332 331 330 330 330 333
321 323 335 340 342 345 342 337 333 326 325 326 326 326 327 327 328 330 329 331 332 333 333 335 334 331 329 325 327 332 335 338 336 333 338 337 336 337 336 336 335 335 335 334 333 331 330 331 333
329 336 335 338 339 337 335 333 329 327 325 325 325 326 327 327 327 331 329 329 330 333 335 335 334 332 332 334 337 337 339 339 337 338 336 336 335 334 333 334 334 334 334 334 334 331 330 332 335
334 334 334 337 337 337 333 333 326 326 324 324 324 325 327 327 328 328 328 328 328 330 333 330 329 329 328 330 337 335 338 339 337 337 336 334 334 334 334 334 333 333 333 333 334 332 331 334 335
333 327 331 332 333 332 330 330 329 326 326 324 323 328 328 327 327 327 327 327 326 327 327 328 328 328 325 323 322 322 327 333 333 331 330 331 332 332 332 332 331 331 331 331 333 333 330 332 333
332 331 332 332 332 330 330 330 329 328 325 325 324 325 328 327 327 327 327 327 327 326 327 327 326 324 324 323 322 322 323 323 324 325 325 326 329 329 329 330 330 330 330 330 331 333 330 329 330
330 329 330 330 330 329 330 330 328 328 327 325 324 324 328 326 327 326 326 326 325 325 325 325 324 323 324 325 326 327 327 326 328 326 328 327 326 326 328 328 329 330 330 331 332 333 330 329 328
330 330 331 330 329 330 326 325 326 326 327 327 325 323 327 327 327 326 326 325 324 325 324 323 323 324 327 328 329 328 327 330 328 328 327 327 325 325 325 326 329 330 332 331 333 332 331 329 328
331 331 331 330 329 329 326 323 323 327 326 326 327 325 328 328 326 324 324 323 323 324 323 323 322 322 323 323 329 329 328 327 326 326 325 325 325 325 326 325 328 329 330 331 332 332 328 330 330
330 330 328 328 329 329 328 323 323 324 326 326 325 324 324 325 324 323 323 324 324 324 322 321 322 323 324 325 328 328 328 327 326 326 325 325 324 324 324 326 327 327 327 328 331 330 330 331 329
330 329 329 328 328 328 326 324 323 323 325 326 326 324 322 322 321 322 323 323 323 323 323 326 326 326 327 329 330 328 329 328 326 324 327 327 325 324 327 327 327 327 326 327 328 329 329 330 328
330 330 329 329 328 325 325 325 325 323 326 326 324 323 323 321 321 324 324 323 324 324 325 326 327 327 328 329 327 328 327 327 326 326 327 328 326 324 325 325 326 326 326 326 327 327 327 327 326
329 328 329 329 328 326 326 326 325 325 326 326 323 322 321 321 322 324 324 323 324 324 324 327 327 328 328 328 328 328 329 329 328 327 326 327 327 325 324 325 325 324 325 326 325 325 327 327 328
325 325 326 328 327 325 326 326 326 326 325 325 323 322 321 322 324 323 324 324 325 323 324 326 327 327 327 328 330 330 329 329 328 327 327 326 326 322 324 325 325 325 324 324 325 325 326 327 327
323 326 328 326 326 326 325 327 326 326 325 325 325 325 324 323 321 324 324 325 325 323 324 326 328 327 327 329 330 330 330 330 329 328 328 324 325 321 323 325 325 325 323 324 324 324 326 328 329
323 325 326 327 326 326 326 327 326 326 325 325 326 325 324 322 324 325 324 325 326 324 326 327 328 328 329 330 330 330 330 331 331 330 329 325 322 318 326 326 325 325 323 323 323 323 325 328 328
323 325 327 328 327 326 326 327 327 326 325 325 324 325 325 325 325 325 326 327 326 324 325 329 329 330 331 329 328 331 331 332 332 330 328 326 322 323 328 327 325 325 324 323 323 324 326 328 330
323 325 327 328 327 326 329 329 327 327 326 324 324 325 327 325 324 326 327 327 325 325 326 329 330 330 331 328 331 330 331 330 330 329 329 328 328 327 328 326 326 324 324 324 324 326 327 329 329
325 324 325 325 326 327 328 328 328 328 327 325 324 324 324 325 325 325 327 327 325 325 326 330 331 330 329 328 332 331 331 330 331 330 330 329 328 327 328 327 326 324 325 324 325 326 328 329 330
325 325 324 325 327 327 327 327 329 328 326 325 325 324 325 325 325 325 327 327 325 325 325 330 330 330 328 330 331 330 330 330 331 330 330 328 327 328 327 326 326 325 326 325 326 327 328 330 331
324 325 325 326 328 328 327 327 327 327 325 325 324 324 325 324 325 326 327 327 326 326 327 328 330 328 328 328 329 332 332 331 330 329 329 328 328 326 327 325 326 325 325 326 327 327 328 328 330
324 325 325 327 327 326 325 325 325 326 327 325 322 325 325 324 326 326 327 328 326 326 325 330 328 327 330 330 330 332 332 331 331 328 329 327 328 327 327 328 326 327 327 327 328 326 328 324 330
325 325 326 327 324 326 327 326 326 327 327 325 323 324 327 325 325 326 328 329 327 326 327 327 328 328 330 331 330 330 329 330 329 329 329 328 328 328 328 327 327 326 327 327 328 325 328 324 330
325 323 326 326 323 326 326 327 326 326 326 323 325 326 326 326 326 327 328 326 326 326 325 327 329 326 326 329 330 330 327 329 327 326 327 328 327 327 327 327 327 326 326 326 327 328 329 328 331
322 323 327 329 329 326 326 327 327 327 324 323 327 327 327 325 326 327 326 325 325 323 326 326 328 326 325 328 329 330 331 327 325 326 327 327 327 326 326 326 327 326 327 328 327 328 329 330 332
321 325 323 325 326 326 326 328 328 324 323 322 330 329 326 325 325 326 326 324 325 323 323 323 328 325 325 328 328 331 330 328 327 323 327 327 326 327 328 328 328 328 328 327 328 328 330 330 331
322 325 325 322 325 327 328 329 330 324 323 324 332 329 328 326 326 326 325 324 325 323 322 321 326 325 326 327 328 331 330 330 330 329 327 328 326 326 328 329 330 329 329 328 328 330 329 328 330
322 326 323 320 321 325 327 329 325 324 326 330 332 330 328 326 325 326 324 326 326 324 322 323 326 324 325 326 327 329 332 331 332 329 327 327 326 327 328 329 330 329 329 328 328 327 328 329 329
324 325 322 323 326 325 328 328 328 330 330 330 333 331 326 325 324 325 324 325 325 325 324 324 326 325 324 326 326 329 331 332 331 331 328 329 329 328 328 329 329 330 330 329 328 329 327 328 329

GFSSGP_925_thetae_006.txt.gz
Theta_e
308 308 318 325 336 335 340 339 333 330 327 325 324 323 323 324 326 326 337 339 337 331 325 324 323 322 322 324 325 326 327 328 330 332 336 337 334 329 333 334 333 331 331 330 330 329 330 330 333
308 312 324 331 340 346 343 336 335 327 325 324 324 321 323 329 329 328 336 336 337 331 325 324 323 324 324 325 327 329 330 332 332 336 338 337 337 336 335 335 335 334 334 333 332 331 330 330 329
313 322 326 338 340 344 343 336 333 328 323 324 325 324 325 327 328 327 329 335 336 332 329 328 327 326 326 327 329 331 332 332 336 338 337 337 337 336 336 336 336 335 335 335 334 333 332 331 330
327 333 332 338 338 336 338 334 331 325 324 323 324 327 326 327 329 329 332 333 332 331 331 331 330 329 328 329 330 331 333 338 338 339 338 337 336 335 334 335 335 334 334 333 334 335 333 332 331
330 331 336 336 337 335 332 331 326 325 324 323 323 327 326 327 330 329 332 332 331 333 333 336 333 331 331 330 330 336 339 339 338 338 338 336 335 334 334 334 333 333 333 333 334 334 335 331 330
333 326 330 331 331 330 328 327 329 327 325 323 325 326 325 328 330 329 330 332 331 333 336 335 330 327 326 323 322 320 321 326 334 335 334 332 332 333 333 332 332 332 332 332 333 332 333 332 331
332 331 333 331 333 329 329 328 329 326 327 323 322 327 327 325 328 328 327 328 329 331 330 328 326 326 323 322 321 321 322 323 323 324 325 325 329 330 330 330 330 330 331 331 331 331 332 332 331
328 327 331 328 330 328 327 325 324 327 327 323 323 328 327 324 327 327 326 326 326 326 325 325 325 323 323 323 323 324 326 326 325 327 326 328 326 327 328 329 329 329 329 330 330 331 331 331 331
327 330 331 330 329 328 327 325 324 325 326 325 323 324 326 327 326 326 326 326 327 327 325 325 324 324 324 325 325 327 327 326 328 328 329 327 326 325 324 325 327 330 331 331 331 332 332 330 330
329 330 334 331 328 327 327 326 325 323 322 324 325 326 327 326 324 323 323 323 324 326 327 326 325 325 326 326 327 329 328 328 329 327 326 323 324 325 324 326 327 329 329 329 331 331 332 332 330
329 332 331 331 329 327 327 327 325 322 322 322 324 326 325 324 323 322 323 324 323 324 324 323 324 324 324 327 327 328 327 328 327 326 324 324 325 324 324 324 325 325 326 326 328 330 332 330 330
330 330 331 330 329 327 327 327 327 323 322 322 323 325 324 323 322 320 321 321 322 322 323 322 322 324 325 326 328 328 328 328 328 327 325 325 327 325 324 325 326 326 326 326 327 328 328 329 330
330 330 330 329 327 327 327 327 326 323 323 322 323 323 324 323 321 322 322 322 322 322 323 324 325 326 324 325 324 326 326 327 326 327 327 326 327 327 325 325 325 325 326 326 326 327 328 328 329
329 330 329 329 328 328 328 328 324 325 324 323 321 322 321 320 320 320 320 321 322 324 325 325 326 325 325 323 327 328 328 328 329 328 327 327 326 327 326 324 324 325 324 326 326 326 326 326 326
322 326 328 328 325 324 325 325 325 324 323 323 320 319 321 321 320 320 321 322 323 324 325 326 326 326 325 325 328 329 329 329 329 328 328 327 326 326 324 324 324 324 324 324 325 325 325 326 326
320 320 322 322 323 324 323 327 325 324 323 323 322 320 320 318 321 321 321 322 323 323 326 326 326 327 326 326 329 330 330 330 330 330 329 328 326 325 323 321 325 324 324 323 324 325 325 325 326
318 321 321 322 323 325 324 326 326 324 323 324 323 322 322 320 320 321 322 323 323 324 325 326 327 327 327 328 330 329 329 330 330 331 330 329 327 322 319 321 326 325 325 323 323 324 325 326 327
320 321 323 324 324 324 325 325 325 324 324 324 322 323 323 321 321 322 323 323 323 325 326 327 328 328 328 329 328 329 329 330 331 330 329 328 326 322 321 325 326 325 325 323 323 323 323 324 326
321 321 323 323 324 325 325 326 326 325 323 323 321 321 322 321 322 323 324 323 323 325 326 328 328 328 330 330 328 330 329 330 329 329 329 328 328 327 325 327 326 325 324 323 323 323 323 325 326
319 322 322 322 323 323 323 324 326 325 324 322 322 322 321 323 324 325 325 324 324 325 327 328 329 329 330 328 329 331 330 330 330 331 330 329 329 328 327 326 326 325 324 323 323 324 326 326 328
319 320 324 324 324 323 323 325 324 326 325 324 323 322 323 323 324 325 324 323 324 326 327 329 330 330 328 329 330 329 330 330 330 330 329 329 327 327 326 326 326 325 325 323 324 325 326 328 329
320 321 323 326 326 325 323 326 322 324 324 323 322 321 323 323 324 325 324 322 324 325 326 329 329 329 327 328 328 332 331 330 330 329 329 328 326 326 326 325 325 324 325 325 324 326 326 327 329
321 320 322 324 325 323 324 322 321 323 325 324 322 322 322 322 323 324 324 323 324 325 327 328 329 327 329 329 330 332 329 330 329 329 328 327 327 327 327 326 326 325 326 326 326 326 326 328 328
320 321 322 322 323 326 324 324 326 323 324 324 322 324 322 322 322 324 325 324 324 327 326 329 327 327 329 330 330 330 328 328 327 328 327 327 327 327 327 327 326 326 326 327 326 327 328 325 329
320 320 323 323 324 327 323 325 325 324 324 323 320 322 322 323 324 326 325 323 324 325 327 327 327 328 328 328 330 329 327 326 325 327 328 327 327 327 327 327 326 325 327 327 327 325 328 326 330
315 316 324 326 326 324 323 325 324 322 323 323 322 323 323 323 325 326 325 323 323 325 326 326 328 325 325 327 329 330 328 325 325 326 327 327 327 327 327 326 326 326 326 328 328 328 329 327 330
315 318 317 322 323 323 323 324 326 323 323 326 326 325 324 323 325 325 324 322 321 324 325 325 328 326 324 328 329 330 328 326 324 326 327 326 326 326 326 326 325 325 327 327 328 329 329 330 332
315 317 320 319 325 325 324 325 326 323 324 328 327 325 324 324 325 325 323 321 321 324 324 324 326 326 325 328 328 330 330 329 328 327 327 325 326 327 327 328 327 326 328 328 328 328 330 331 332
314 316 320 320 320 325 323 323 321 321 321 329 326 325 324 325 325 325 322 322 321 323 321 321 325 325 326 327 328 329 331 330 330 327 326 326 327 327 327 328 329 329 329 328 328 329 330 331 331
315 316 320 323 322 321 321 322 322 321 322 327 326 326 324 324 325 324 321 321 321 321 320 323 326 324 324 326 326 328 331 331 330 328 326 327 327 327 328 329 329 329 329 328 328 328 327 329 328

GFSSGP_925_thetae_009.txt.gz
Theta_e
307 309 323 325 335 334 339 338 332 334 326 323 323 322 322 323 323 323 334 338 333 328 330 324 324 323 321 321 322 324 325 325 325 326 330 331 333 333 333 333 333 332 331 331 331 330 329 329 330
308 314 325 331 338 343 340 337 337 330 324 323 322 322 324 327 329 331 336 338 337 335 333 326 324 322 321 322 324 326 328 329 329 333 336 336 337 335 334 334 334 334 334 333 333 333 332 330 330
315 321 324 337 338 343 341 337 332 330 325 323 322 323 325 327 328 330 334 338 337 336 329 325 323 322 322 324 326 329 331 332 337 338 338 338 336 337 336 335 334 335 335 335 334 334 334 333 331
324 330 330 338 340 337 338 336 333 329 322 321 323 326 324 326 327 332 329 335 336 331 327 324 323 323 324 326 329 331 332 335 338 339 338 338 337 336 335 332 332 334 334 333 334 334 336 334 333
332 329 338 336 338 334 332 330 326 326 323 322 322 326 325 326 328 328 329 332 334 331 328 326 326 326 326 328 329 330 332 333 336 337 338 337 337 336 335 335 334 334 333 332 332 333 334 336 334
331 324 330 332 330 329 327 326 325 325 325 322 325 325 324 325 328 329 329 332 331 329 329 328 329 329 329 330 330 326 323 331 333 335 334 333 333 334 335 335 334 332 331 332 332 332 333 333 333
330 329 332 330 332 330 328 325 327 326 324 324 323 325 324 325 329 331 331 331 330 330 331 331 333 331 330 328 323 320 320 321 323 326 324 324 325 327 330 330 330 331 332 331 331 332 332 332 332
327 327 332 328 329 329 327 324 322 324 324 322 325 327 326 323 327 332 335 333 333 333 333 336 331 328 327 324 322 321 322 323 325 325 326 326 325 326 327 329 329 329 329 330 329 331 331 331 331
324 328 330 329 328 327 325 325 325 323 323 323 321 324 325 326 326 325 331 334 334 336 336 333 328 327 325 324 323 323 324 325 326 326 327 327 327 327 325 324 324 328 330 331 331 330 330 330 331
328 329 329 326 326 326 326 327 327 325 325 321 322 324 325 325 324 323 323 325 331 333 331 328 328 325 326 324 324 325 326 327 327 329 327 327 324 324 324 324 326 329 329 330 330 329 332 332 332
327 330 328 327 327 327 326 327 328 326 326 325 322 322 324 322 322 323 322 324 326 327 328 329 328 326 326 325 324 325 328 327 327 328 328 325 324 324 324 323 323 324 325 325 325 327 330 332 331
329 328 329 328 327 328 328 328 328 327 326 325 323 323 323 322 321 322 322 322 323 324 326 327 327 325 324 324 325 326 327 328 327 327 326 326 324 326 326 324 324 325 325 326 325 327 328 330 330
327 327 327 327 327 328 327 327 327 327 326 325 320 323 324 323 321 322 322 323 322 321 323 325 324 322 323 325 326 327 326 326 326 327 327 326 326 326 327 325 324 325 325 325 325 325 327 328 329
326 327 327 328 329 328 328 328 328 328 326 325 321 322 323 323 322 321 320 321 321 321 322 323 322 323 325 325 324 326 327 328 328 328 328 328 327 325 326 326 324 323 324 324 325 325 326 327 328
317 319 320 323 325 326 326 327 326 324 323 322 322 319 321 322 322 320 321 320 321 320 322 322 324 326 324 322 325 327 328 329 329 329 328 328 327 326 326 326 322 323 324 324 324 325 326 327 327
317 317 320 321 323 325 322 327 324 323 322 323 322 320 319 320 320 321 320 320 320 322 322 324 326 325 324 324 326 328 329 329 329 329 329 329 328 327 325 325 323 323 325 324 323 324 325 325 325
315 318 318 320 320 321 321 323 324 323 322 322 322 321 318 318 317 319 320 320 320 324 325 326 326 326 325 325 327 328 328 328 329 329 330 330 329 328 325 323 320 324 325 324 323 323 324 325 325
315 316 318 320 320 320 321 322 323 323 323 322 322 322 320 320 318 318 320 320 321 324 325 325 326 326 326 327 329 328 329 329 329 330 330 330 328 327 322 320 319 326 325 324 324 323 324 324 325
316 316 317 318 320 322 322 322 323 323 321 322 322 322 320 320 319 319 320 320 321 324 325 326 327 327 327 329 328 330 329 329 329 329 329 329 328 327 325 323 325 326 325 324 323 322 323 323 324
317 318 320 321 321 321 321 321 321 321 321 321 323 321 319 322 322 321 320 320 323 324 326 327 327 328 329 329 327 329 330 329 329 329 330 329 329 328 328 327 326 326 325 323 323 323 323 323 324
318 318 318 320 321 321 321 323 323 322 321 322 321 320 320 321 323 323 321 320 323 325 327 327 328 328 329 327 329 329 329 330 329 329 329 329 328 327 327 327 326 325 324 323 322 323 324 325 326
318 319 319 320 321 324 322 324 322 321 322 321 320 319 319 321 322 323 322 319 323 326 326 328 329 329 327 327 327 330 330 329 329 329 328 327 326 327 326 326 325 324 324 324 323 324 325 326 327
318 319 320 321 321 321 323 323 322 320 323 321 319 318 317 320 322 323 321 321 324 325 327 329 329 328 327 328 329 331 328 328 328 328 327 327 326 326 326 325 324 325 325 325 324 324 325 326 327
316 318 318 318 319 323 322 322 324 322 322 322 322 321 321 319 321 321 321 322 323 324 327 328 328 327 328 328 329 330 327 326 327 327 327 326 326 327 326 326 325 326 326 326 326 326 326 326 327
315 317 319 319 322 325 321 322 323 322 321 321 322 321 320 320 323 322 322 320 322 324 327 328 326 327 328 329 329 328 327 326 325 326 327 326 326 327 327 326 326 326 326 326 326 326 327 325 328
314 317 321 325 324 323 322 325 324 321 321 321 320 319 321 321 323 323 321 321 322 324 327 326 326 326 327 326 329 328 328 324 325 326 327 326 326 326 326 326 325 325 327 327 327 326 327 325 329
313 317 318 318 321 322 322 322 322 322 322 324 323 322 322 322 323 323 321 320 322 324 326 326 326 325 324 325 328 329 328 325 324 326 326 326 326 326 326 325 325 326 327 326 327 328 328 328 329
312 313 314 312 318 322 323 323 324 323 325 326 325 323 322 322 323 323 321 319 322 324 325 325 326 326 323 327 328 328 329 328 326 326 325 325 326 326 325 325 325 325 327 327 328 328 330 331 330
312 314 314 316 318 322 322 323 319 321 322 325 323 322 322 323 324 323 320 320 322 324 324 324 325 326 324 327 327 328 330 329 329 326 325 326 326 326 326 326 326 326 327 328 328 330 330 329 328
314 313 313 316 318 319 321 324 321 318 319 323 323 322 321 322 323 322 320 318 319 321 322 321 324 326 325 326 327 329 330 330 328 326 325 327 326 327 327 328 328 328 328 328 328 329 329 329 328

GFSSGP_925_thetae_012.txt.gz
Theta_e
308 310 321 325 334 333 338 337 331 334 331 322 321 321 321 322 331 325 329 335 333 329 329 319 321 323 320 320 320 321 322 324 325 329 328 328 329 331 332 332 332 332 331 331 331 332 331 329 328
309 323 326 330 337 341 338 336 337 333 329 321 321 322 323 324 328 332 335 336 333 329 332 321 321 323 322 321 321 322 324 325 326 329 332 332 333 334 334 334 334 333 333 333 333 334 334 332 330
318 322 329 337 337 342 339 335 334 331 329 323 322 322 324 326 327 330 334 336 335 329 330 326 323 324 322 321 321 323 327 329 334 336 335 336 337 337 336 335 334 334 334 336 335 333 333 334 333
326 329 328 338 342 338 336 335 335 329 327 319 321 325 324 324 327 329 332 336 336 333 331 329 325 323 321 321 322 325 329 331 334 338 338 337 337 337 335 331 334 334 334 334 332 332 334 336 336
332 329 338 338 339 336 332 331 330 327 324 321 321 324 324 325 327 331 331 335 333 335 333 331 325 323 321 322 323 326 329 330 335 338 339 336 337 337 335 336 333 334 334 334 333 332 331 332 336
330 325 332 334 332 330 327 327 326 325 324 321 323 323 323 324 327 329 329 333 331 333 333 328 325 323 323 324 326 328 329 329 331 336 335 337 335 335 335 335 335 334 334 333 332 333 332 332 333
331 328 330 329 331 330 328 324 325 324 323 324 322 325 322 323 326 328 330 331 332 332 330 327 325 325 326 327 329 330 327 327 331 324 325 326 325 325 329 331 331 331 331 332 332 333 332 331 332
327 326 330 328 328 326 326 324 322 325 326 322 324 324 322 322 327 330 332 332 333 331 329 327 327 328 329 330 331 329 326 322 322 324 325 324 326 325 328 328 327 329 330 330 330 328 331 331 331
322 328 329 326 326 325 323 326 324 324 324 322 322 321 322 325 326 333 335 335 333 332 330 329 329 331 331 331 330 328 323 322 324 325 326 328 327 326 325 325 324 326 328 329 331 331 329 329 331
326 328 328 324 323 325 324 327 326 326 327 323 322 320 322 324 325 328 330 332 334 334 334 333 333 333 331 329 327 325 324 325 326 326 326 327 326 325 323 324 324 327 329 330 331 330 331 331 331
326 330 328 326 324 326 327 327 327 327 328 327 324 324 322 322 322 324 327 330 332 332 334 334 336 332 330 327 325 325 324 325 327 327 327 329 327 325 323 324 323 323 323 324 324 324 324 329 331
328 327 327 327 325 325 327 327 329 328 328 326 324 323 322 321 320 322 323 327 328 330 332 335 336 330 328 326 325 323 323 325 327 327 327 327 326 325 324 325 324 323 324 325 325 325 325 328 330
325 327 326 326 325 326 326 327 328 328 327 326 325 322 319 321 321 322 323 324 324 325 328 331 331 330 327 326 324 323 323 326 326 326 326 326 326 324 325 326 326 324 325 325 324 325 325 327 329
323 325 325 324 325 325 327 327 327 328 328 326 324 322 319 321 321 321 321 322 322 322 323 327 329 328 326 323 324 321 325 326 326 327 327 327 327 327 326 325 326 324 322 324 324 324 325 326 328
316 318 316 318 319 320 323 324 326 325 324 321 321 321 319 320 321 320 321 321 323 320 321 323 326 325 322 324 321 323 326 327 328 328 328 328 328 327 326 325 326 325 322 323 323 323 325 326 327
317 316 317 317 319 319 321 323 323 323 322 322 321 320 319 317 320 322 322 321 321 320 320 322 324 323 324 323 321 325 327 328 328 328 329 329 328 328 326 325 325 324 322 324 323 323 324 325 326
313 316 315 316 317 319 322 321 322 321 321 321 321 320 320 318 316 320 321 321 319 320 320 322 323 324 324 323 324 326 328 328 328 329 329 329 329 328 327 326 324 323 321 324 324 323 323 324 324
315 315 315 315 317 318 318 319 320 320 320 320 320 320 319 319 319 318 319 319 319 321 321 322 323 325 324 324 325 327 328 328 329 329 329 330 330 329 328 325 321 319 323 325 324 323 323 324 324
314 313 313 314 317 318 318 319 320 320 319 318 319 319 319 319 317 317 318 318 320 321 321 323 325 325 326 325 327 328 328 329 329 328 329 329 329 328 327 324 322 321 325 325 324 323 322 323 324
316 314 314 316 320 319 319 319 319 319 319 318 320 320 319 318 321 319 317 319 321 322 324 325 325 326 326 327 327 327 329 329 328 329 329 329 329 329 328 326 325 325 325 324 323 322 322 322 323
316 317 317 317 319 319 319 319 320 320 319 318 318 318 317 317 320 320 317 319 321 322 324 325 326 326 327 328 326 328 328 329 329 329 328 328 328 327 327 328 327 326 325 323 323 322 322 322 323
317 317 317 319 320 319 319 323 320 319 321 319 319 317 317 318 321 319 318 319 322 323 325 326 326 327 328 327 327 327 330 328 328 328 327 327 326 326 326 326 326 326 324 323 322 322 323 324 324
319 319 319 319 319 318 319 320 321 319 320 320 319 318 316 316 320 319 318 320 323 324 326 326 327 328 327 327 327 330 329 327 327 327 327 326 326 326 326 325 324 324 324 324 323 323 324 325 326
317 317 316 316 316 319 318 320 320 320 321 321 320 319 321 319 320 318 319 322 323 325 326 328 328 328 326 327 328 329 327 325 325 326 326 326 326 326 326 325 325 325 325 324 324 323 324 325 326
314 313 315 317 318 320 319 320 319 319 319 320 320 319 320 320 320 320 320 320 321 324 327 328 328 326 326 327 328 329 327 325 325 325 326 325 326 326 326 325 325 325 326 326 326 325 325 325 326
317 315 315 318 321 323 319 323 322 320 319 319 319 318 319 321 320 320 320 319 321 324 326 327 326 326 327 328 328 328 328 324 324 325 326 325 326 326 326 325 325 326 326 326 326 325 326 325 327
314 316 314 317 318 320 320 320 320 320 321 321 321 320 320 321 320 320 319 319 321 324 326 327 325 325 327 325 328 328 328 324 324 325 325 325 326 326 326 325 325 326 326 326 326 327 326 325 328
312 313 315 314 318 322 320 321 322 322 321 323 323 320 320 321 321 320 319 319 322 324 326 326 325 325 324 323 327 328 328 327 325 325 325 325 325 325 325 325 325 326 327 327 327 328 329 330 328
311 311 312 313 313 318 320 321 318 320 320 322 321 319 320 322 322 321 319 319 322 323 325 325 325 325 323 326 326 327 329 328 326 325 324 325 325 325 325 325 325 325 327 327 328 328 327 327 329
312 311 313 314 316 316 319 320 319 318 317 320 320 320 319 321 321 321 319 317 320 322 323 323 324 325 323 326 326 327 329 329 328 326 325 326 326 326 326 327 326 326 327 327 329 326 326 327 328

GFSSGP_925_thetae_015.txt.gz
Theta_e
309 311 318 326 335 337 338 341 335 338 335 325 324 326 328 328 335 329 328 333 334 329 319 319 319 322 321 317 317 318 319 319 319 319 319 318 320 324 324 325 324 320 325 332 332 332 332 330 329
310 322 328 334 341 345 343 341 342 339 335 333 327 324 325 327 327 332 336 333 333 331 322 321 318 322 322 318 318 319 320 321 321 322 323 324 325 332 334 334 334 333 333 332 333 334 335 334 332
320 323 335 341 345 347 342 339 339 336 335 330 326 324 326 329 330 333 335 334 332 331 327 324 319 321 323 319 319 320 321 322 323 325 329 332 332 332 334 336 336 334 334 332 335 335 334 334 335
325 331 334 338 341 343 341 339 338 337 332 324 324 327 326 326 329 330 333 335 332 330 329 332 321 321 323 321 320 321 322 324 325 330 335 336 336 337 336 336 337 336 335 334 335 334 332 336 336
331 336 334 340 339 338 338 338 336 335 332 329 324 326 328 326 326 327 332 336 334 331 328 333 325 322 324 321 321 322 323 326 328 333 338 338 338 337 337 336 336 336 335 335 334 334 333 331 331
333 334 336 332 331 333 333 333 333 331 329 328 325 325 327 325 327 328 332 335 335 332 329 331 330 323 324 322 322 323 325 328 331 332 336 337 337 337 336 335 336 335 335 335 334 333 332 332 332
332 335 330 331 328 329 329 329 330 330 328 329 325 326 328 328 326 327 331 335 333 334 333 331 339 327 324 323 322 324 327 329 330 331 334 335 332 332 329 329 330 331 332 333 333 333 332 332 332
331 333 332 332 328 328 327 328 326 328 330 325 326 329 330 328 325 326 330 335 335 334 335 334 337 341 340 338 325 326 329 329 327 333 327 326 326 325 325 327 327 326 330 331 331 332 332 330 329
326 332 331 329 328 328 326 328 327 327 329 328 327 328 327 326 324 331 335 336 335 335 336 337 339 340 340 340 340 331 332 329 330 327 327 327 329 330 328 327 324 327 327 328 330 331 331 331 330
331 333 331 328 327 327 326 327 328 328 329 329 329 328 325 325 326 329 334 335 335 336 336 336 336 340 338 340 340 341 339 336 334 333 331 331 331 329 327 325 323 325 328 329 330 331 332 329 331
329 332 330 329 328 326 327 328 327 328 329 328 329 329 329 329 327 328 331 332 333 334 336 336 335 335 338 340 339 338 335 333 333 328 327 328 329 329 328 327 327 327 325 325 326 327 326 327 330
328 329 329 329 328 328 328 328 328 329 330 329 329 329 329 329 329 328 329 331 333 333 335 338 336 333 333 337 334 332 332 327 328 327 326 327 329 330 328 326 327 326 326 327 327 328 328 329 330
329 328 328 329 329 329 329 329 329 329 328 327 328 329 329 330 329 327 327 328 331 332 333 337 336 333 334 333 330 326 325 326 327 325 326 326 328 328 328 327 327 327 326 327 327 327 327 328 330
323 326 326 327 328 328 328 327 327 327 328 328 328 328 328 328 328 326 326 327 328 329 330 333 335 335 336 330 326 325 324 322 325 326 326 326 327 327 328 328 327 327 327 326 326 326 327 327 329
323 326 326 326 326 327 323 322 323 325 325 325 326 327 327 327 325 326 326 327 327 327 327 328 332 336 332 328 326 324 322 324 326 327 327 327 327 328 328 329 328 327 327 324 326 326 326 327 328
318 319 319 319 319 320 319 322 322 323 324 325 326 326 325 326 327 326 326 327 327 326 324 324 328 331 329 327 324 323 322 326 327 328 328 328 328 328 329 329 328 328 327 325 326 326 326 327 327
318 319 319 319 319 320 322 322 321 322 323 324 324 325 325 326 327 326 325 326 326 324 324 322 326 329 327 324 323 320 325 326 327 328 329 328 329 328 328 329 328 327 326 325 326 326 325 326 327
319 318 318 319 319 318 319 321 321 321 322 324 324 325 326 326 326 326 324 324 324 323 321 322 325 327 324 324 322 324 326 327 328 328 329 329 330 329 328 328 327 326 324 325 326 326 325 325 327
318 320 321 321 318 317 318 319 321 322 322 323 324 325 327 328 327 323 322 322 323 324 325 326 327 326 326 326 326 328 329 330 329 329 328 329 330 329 329 327 326 322 323 326 326 326 325 325 326
315 318 319 318 317 318 319 320 322 322 323 322 324 326 326 327 327 325 323 323 324 325 326 327 327 325 326 327 327 329 329 330 330 329 329 330 330 329 328 326 326 325 326 327 326 326 325 325 326
315 315 316 317 317 318 320 321 320 320 323 323 323 324 326 326 328 327 324 323 325 325 326 327 328 325 325 326 327 327 328 329 331 331 330 329 329 328 327 327 327 327 327 327 326 325 325 325 326
316 316 315 315 317 319 320 323 322 322 322 322 324 326 327 326 325 327 325 325 325 326 326 328 328 326 326 326 328 330 332 333 330 330 329 328 326 327 328 328 328 328 327 326 325 325 325 325 326
316 316 317 317 319 320 320 323 321 323 322 322 322 326 327 324 325 327 326 325 325 326 327 328 328 328 328 327 329 331 333 330 330 329 329 328 327 327 327 327 327 327 326 326 326 325 326 326 326
317 318 319 320 321 323 321 322 321 322 322 322 325 326 325 326 326 325 325 325 326 327 328 329 329 330 328 328 327 330 332 330 329 329 329 329 328 328 327 326 327 326 327 327 326 326 326 327 326
319 320 321 321 321 323 321 322 322 323 321 322 324 327 326 328 327 326 327 327 327 328 328 329 330 329 329 328 329 330 330 327 328 328 329 329 328 328 328 327 326 327 326 327 327 327 327 328 328
320 320 319 322 324 322 321 321 321 323 322 323 325 326 326 328 327 327 327 327 327 328 329 329 330 329 329 329 331 329 328 327 327 328 328 328 328 328 327 326 327 327 326 327 327 328 328 328 329
320 321 319 321 323 324 325 324 325 325 325 326 325 325 328 329 328 327 327 327 327 328 330 330 329 328 329 329 329 329 329 325 328 327 327 328 327 328 328 327 326 328 328 328 329 329 329 328 329
318 319 319 319 320 321 323 325 326 326 327 327 328 328 328 329 328 326 327 327 327 328 329 329 328 328 329 327 330 330 329 327 328 327 328 328 328 328 328 327 328 329 329 327 327 328 328 330 329
315 319 318 319 318 319 319 320 327 329 328 329 330 328 329 329 328 327 327 326 327 328 328 328 327 327 326 326 329 330 330 329 328 328 327 328 328 328 328 327 328 329 328 327 330 328 328 329 331
315 317 318 317 319 319 320 320 324 327 327 327 328 327 328 329 328 327 327 326 326 327 328 327 327 327 326 328 328 330 331 330 329 328 328 328 328 328 328 328 328 328 327 329 327 327 327 328 328

GFSSGP_925_thetae_021.txt.gz
Theta_e
311 318 326 331 335 331 335 333 336 338 338 335 335 334 334 333 332 333 337 338 337 336 344 327 318 316 317 316 313 313 314 316 316 316 316 317 317 317 318 320 327 331 331 332 333 334 334 333 332
320 322 329 334 333 334 334 334 339 338 338 337 336 336 334 333 332 332 335 339 337 336 344 339 321 317 318 317 315 314 315 317 318 318 319 319 321 321 323 325 331 334 334 334 334 335 336 336 335
326 325 334 333 335 336 339 340 339 340 337 336 334 332 331 333 333 332 338 339 337 335 343 341 329 319 319 320 317 315 316 318 319 320 321 321 325 327 330 334 335 337 337 336 336 335 334 337 337
324 330 333 339 338 337 337 339 338 337 337 334 333 332 333 332 332 332 335 337 337 335 339 342 338 322 319 321 319 316 317 318 320 321 322 324 326 330 332 335 337 339 339 339 338 336 336 338 337
328 332 334 333 331 332 334 335 339 339 337 335 333 332 332 332 331 332 335 337 336 335 335 343 339 328 320 322 321 317 317 319 320 322 325 326 328 329 334 339 339 339 339 339 338 337 335 337 337
332 333 336 334 332 331 332 332 332 334 335 334 333 332 333 331 332 332 334 336 336 335 335 338 338 336 322 322 323 320 318 319 321 323 325 327 329 333 340 339 338 338 338 338 337 337 337 335 333
332 336 334 332 331 330 332 332 331 331 332 332 332 332 332 333 334 333 334 335 337 336 336 336 348 342 335 323 324 323 319 320 321 323 326 328 327 335 339 338 337 335 333 333 333 334 335 336 336
331 333 334 334 333 331 332 331 331 331 332 332 332 332 332 333 331 331 331 333 335 337 337 337 342 350 347 341 332 325 322 321 322 324 328 329 329 335 333 328 327 328 330 329 330 332 333 334 334
328 331 334 334 333 332 332 332 331 331 332 331 331 331 331 331 331 331 330 330 332 334 337 338 337 343 346 342 341 332 326 324 326 330 332 330 336 332 336 334 333 331 328 327 329 330 330 332 332
329 333 334 333 333 332 332 332 332 332 332 331 331 331 331 331 331 331 331 330 331 332 335 337 338 339 344 341 340 344 340 338 338 338 337 339 335 334 335 334 331 329 327 323 323 323 329 331 329
330 333 334 334 333 333 333 333 332 332 333 332 331 331 331 331 330 331 330 329 330 331 333 337 339 339 342 341 339 344 341 340 340 339 339 336 334 334 335 334 334 333 332 332 331 331 331 330 328
333 333 333 333 333 332 333 333 333 333 333 332 331 331 331 331 331 331 330 330 330 332 333 335 338 342 343 341 338 340 342 340 339 339 339 337 335 335 335 333 333 332 331 331 330 330 329 330 331
330 330 330 331 331 331 331 332 332 333 332 332 331 331 331 330 330 328 328 328 329 333 333 333 338 343 345 344 339 340 340 338 337 336 335 335 335 335 334 334 333 332 331 331 330 329 329 329 330
328 329 329 329 329 329 330 332 331 332 332 332 330 330 330 330 329 328 328 328 329 333 333 334 339 343 345 345 343 341 340 336 335 333 332 335 336 334 334 334 333 332 332 331 331 330 329 329 329
329 330 330 330 329 329 329 330 331 330 330 330 330 329 329 329 328 329 328 328 329 332 334 336 339 343 346 347 345 343 339 335 334 333 332 334 336 335 335 334 334 333 331 331 331 331 329 329 328
327 329 331 330 329 329 329 331 330 330 330 331 329 328 328 328 328 328 328 327 330 332 334 337 337 342 347 347 345 343 337 335 332 331 333 336 337 336 335 334 335 334 334 332 330 330 331 329 328
328 330 331 330 329 329 329 331 330 330 330 330 330 329 328 329 329 329 328 327 330 332 334 337 338 340 347 347 345 342 336 334 331 332 333 334 336 335 335 335 336 334 334 333 330 330 329 329 329
327 328 328 329 328 328 329 330 329 329 327 328 329 329 328 328 329 329 328 328 329 333 335 339 339 341 345 346 344 339 335 333 331 332 333 333 334 334 334 335 335 334 334 333 331 330 329 328 329
324 325 327 328 328 328 328 329 329 328 327 328 329 329 328 328 330 328 328 331 334 334 336 340 340 341 345 344 340 336 333 333 332 332 333 333 334 334 334 335 335 334 333 331 330 328 330 329 329
322 324 326 327 327 328 329 329 329 328 328 328 328 329 329 329 330 330 329 336 336 336 338 338 338 341 344 341 337 333 332 332 331 332 333 334 334 335 335 334 335 334 333 331 329 330 330 330 330
322 323 325 326 326 327 327 327 327 327 328 327 327 328 328 329 329 330 330 337 336 337 337 338 339 342 340 336 334 332 332 333 333 331 332 333 334 333 335 334 333 333 332 331 330 330 330 330 329
321 322 323 325 326 326 325 329 327 327 328 327 328 329 329 329 329 330 331 339 337 337 337 338 340 339 336 334 334 334 333 330 331 333 331 333 334 332 332 332 332 332 331 332 331 329 329 328 330
320 320 322 324 324 325 324 325 325 326 327 328 328 328 329 328 329 329 336 338 337 336 337 338 339 336 336 336 333 333 331 330 331 331 333 335 334 333 332 331 332 332 331 331 330 329 329 329 330
319 320 321 323 324 326 325 325 326 327 328 329 329 328 329 329 329 332 337 336 336 335 337 337 337 336 336 334 334 334 333 333 332 333 334 334 336 334 332 330 331 331 331 331 330 329 329 330 330
320 321 323 326 326 328 324 326 327 328 328 328 329 328 328 331 334 337 338 337 336 336 336 337 336 337 335 334 333 334 334 335 335 334 333 334 333 334 333 331 332 332 332 332 332 330 330 330 333
320 321 323 327 327 325 325 327 328 328 327 327 328 328 332 335 336 337 337 337 336 335 335 335 336 335 333 333 332 334 335 334 333 334 333 331 333 333 331 332 332 333 333 332 332 331 332 332 331
320 322 322 324 325 326 328 328 329 329 329 326 328 328 333 336 337 337 337 337 335 335 335 335 335 333 333 331 333 334 335 334 335 334 332 332 333 331 331 332 332 332 332 333 333 333 333 333 333
320 321 322 325 327 329 328 330 331 329 327 327 330 329 333 337 337 337 337 336 335 334 335 335 334 333 331 332 333 333 334 335 334 333 332 331 331 329 331 332 332 333 333 333 334 332 333 333 333
318 321 322 324 324 327 330 329 330 330 329 329 331 333 337 338 337 337 336 335 335 335 335 334 333 331 331 332 332 333 333 334 333 333 331 331 331 329 330 330 332 332 332 333 333 333 333 331 328
318 321 322 326 327 325 328 328 327 327 329 329 331 335 338 337 336 336 336 336 335 335 335 334 330 329 331 331 332 332 334 335 334 332 331 330 331 329 329 329 329 331 331 332 332 331 332 330 329

GFSSGP_925_thetae_024.txt.gz
Theta_e
315 310 321 325 332 330 335 335 333 341 338 336 334 334 334 333 332 335 338 336 339 345 331 322 318 316 316 315 313 311 312 314 315 315 315 316 316 317 318 322 327 330 331 332 332 333 333 334 333
320 320 325 330 332 335 333 334 335 337 338 336 335 335 333 333 332 338 339 337 339 345 337 325 319 316 317 316 314 313 313 315 317 317 318 319 321 322 323 326 328 333 334 334 334 335 335 335 336
324 322 328 330 336 336 335 339 338 340 338 336 333 333 332 333 333 336 338 337 338 345 341 332 321 317 317 317 316 314 314 316 318 319 320 321 324 326 327 329 334 336 337 337 337 336 336 335 337
326 327 328 337 339 335 334 340 339 341 338 336 333 332 333 333 333 333 335 336 337 342 346 341 326 319 318 319 317 315 315 316 318 320 321 323 325 328 330 332 335 337 339 339 339 339 337 336 337
326 328 332 331 332 333 333 335 333 338 340 337 335 334 334 332 332 333 335 336 336 336 343 343 340 320 318 320 319 316 316 317 318 320 322 324 325 327 331 334 338 340 339 339 339 339 338 335 336
327 330 333 335 334 333 331 331 332 331 331 332 334 334 333 333 333 333 334 336 336 336 337 341 340 337 320 320 321 319 317 317 319 321 323 324 325 325 330 336 340 338 338 339 338 338 337 336 336
327 331 334 334 333 332 331 332 331 331 331 332 333 333 333 334 334 333 333 334 335 336 337 339 340 339 335 321 322 322 319 318 320 321 323 325 325 324 331 336 337 336 332 331 332 332 334 334 335
326 329 333 335 336 333 332 332 331 331 331 332 332 333 333 334 331 331 331 330 332 337 338 338 338 338 338 336 325 324 322 319 320 322 324 325 326 324 329 328 328 327 328 330 328 326 330 333 333
325 328 333 333 333 333 332 332 332 332 332 331 331 331 331 330 330 331 332 331 331 330 336 342 343 346 345 345 342 334 325 323 322 324 326 327 328 333 335 337 336 334 332 330 328 325 324 327 331
327 328 330 331 332 332 333 333 332 333 333 333 332 333 331 331 331 331 332 331 330 330 330 338 342 347 349 347 343 340 335 332 327 329 332 334 335 337 335 335 335 334 331 329 325 322 321 330 329
330 330 328 330 331 332 332 333 334 334 334 333 334 333 333 331 332 333 330 330 330 329 330 332 338 340 347 347 343 342 341 341 338 335 338 339 340 338 335 334 334 333 332 332 332 331 329 331 331
331 331 330 330 330 332 333 333 333 333 334 333 333 334 333 333 333 332 331 330 329 329 330 333 339 339 343 346 343 345 345 342 340 339 340 339 338 335 333 334 334 335 334 332 332 332 333 332 332
328 330 331 331 331 332 332 332 333 332 332 332 332 333 334 333 333 331 331 329 329 329 329 332 341 339 340 344 343 344 346 343 342 342 341 340 338 335 337 337 336 335 334 332 331 329 329 331 328
329 327 328 328 330 330 331 331 330 331 331 331 332 333 332 333 332 331 332 331 331 329 329 334 343 339 340 342 343 341 343 344 342 341 340 338 336 336 337 336 335 334 332 331 332 332 331 330 330
326 328 329 330 329 330 330 331 332 331 331 331 332 332 332 332 332 331 331 331 332 330 330 334 339 340 343 346 342 347 343 342 340 338 336 335 334 336 337 336 336 335 333 331 331 332 332 331 329
325 326 330 329 330 330 331 332 332 331 331 331 331 332 332 333 331 330 329 331 330 331 332 333 336 344 346 350 346 344 344 341 338 336 334 333 337 337 337 337 335 333 335 333 331 331 332 331 331
325 328 329 330 329 329 330 331 331 331 331 332 332 332 332 332 331 331 329 329 328 331 331 335 337 348 348 350 349 345 345 340 337 335 333 334 336 337 337 336 334 336 334 332 332 333 330 331 330
326 326 328 329 328 329 330 331 331 331 330 331 333 332 330 330 332 332 330 331 330 332 333 336 340 344 350 350 348 347 344 339 335 333 333 334 336 336 335 335 335 335 334 333 332 332 330 331 329
322 325 325 327 327 329 331 331 330 331 330 331 332 331 331 332 335 332 329 330 334 335 336 338 342 344 351 350 349 347 343 337 335 333 333 334 335 335 335 334 335 334 334 332 332 331 329 328 329
318 321 324 326 326 327 328 330 331 331 331 331 332 332 332 332 332 334 333 331 338 337 339 343 345 346 350 349 347 344 339 335 335 333 333 334 334 334 334 335 334 334 333 332 331 330 330 329 329
319 320 324 324 324 325 327 329 331 330 330 330 330 330 330 331 330 331 333 341 339 340 341 342 342 345 348 346 343 339 335 335 334 334 334 334 334 333 332 335 333 333 331 332 330 329 329 330 330
321 319 320 322 324 327 326 330 332 331 330 329 329 330 331 331 331 332 335 345 342 341 340 341 344 346 345 341 339 336 335 335 334 333 333 335 336 334 333 331 331 332 332 332 331 330 329 329 330
319 319 320 321 323 326 325 329 329 328 327 328 329 330 331 332 332 333 334 344 340 340 341 342 345 344 342 337 335 336 336 334 333 332 333 333 335 334 334 333 333 332 332 331 330 330 329 329 329
319 319 319 321 323 327 326 328 328 328 328 328 330 331 331 331 331 332 341 340 340 340 341 343 342 342 337 338 336 334 333 335 334 332 335 334 335 336 334 333 331 331 331 332 331 330 329 329 328
318 323 323 324 324 326 324 326 328 328 327 329 331 331 331 331 332 342 342 341 340 340 341 342 341 340 338 337 335 336 335 335 336 336 334 334 335 335 334 331 330 331 332 332 331 330 329 329 329
318 322 323 324 325 325 324 327 327 328 328 329 327 330 330 334 340 341 341 340 339 340 340 339 340 340 337 336 334 335 335 335 336 335 334 332 333 333 330 332 333 333 333 333 332 331 331 331 329
318 319 321 324 324 324 326 327 328 328 329 329 327 330 336 338 341 341 340 339 339 339 339 339 339 338 336 335 335 335 335 335 334 336 334 333 333 331 332 333 333 333 333 333 332 331 331 333 330
318 319 321 324 326 329 327 328 329 331 332 330 328 333 339 341 340 339 339 340 338 339 339 338 337 336 335 333 335 334 334 335 334 333 332 331 332 331 332 333 334 333 332 333 330 329 331 334 332
318 319 320 324 324 327 329 328 335 333 330 332 333 332 341 340 339 339 339 339 338 338 338 338 336 335 333 335 334 333 333 335 333 331 332 331 331 329 330 332 333 333 332 332 332 333 332 329 326
317 319 321 324 326 326 327 329 332 333 330 333 333 336 340 339 338 338 338 338 337 338 337 337 334 332 334 333 334 333 335 335 334 332 331 330 329 329 329 330 330 332 332 331 332 331 331 327 325

GFSSGP_925_thetae_027.txt.gz
Theta_e
319 311 314 325 326 328 329 331 330 339 338 331 332 333 333 331 334 340 338 340 341 334 324 320 319 317 317 316 313 311 312 314 316 315 315 315 315 316 318 319 322 325 329 330 331 331 331 333 334
319 317 321 326 328 330 330 328 337 339 337 335 333 334 330 337 337 336 340 340 339 334 324 321 318 317 317 317 315 312 312 315 316 317 317 317 318 319 319 320 323 329 333 333 333 334 335 335 335
320 322 320 325 331 332 330 332 337 340 341 339 332 330 331 334 337 338 339 340 339 336 326 323 317 317 317 318 315 312 313 315 317 318 319 319 321 323 324 325 327 332 336 337 337 337 337 336 336
322 326 322 330 335 335 333 333 339 340 341 339 335 332 332 333 333 335 340 337 338 339 333 324 316 316 317 317 316 314 313 315 317 319 320 320 322 325 325 328 331 335 336 338 339 340 339 338 336
324 323 324 329 332 334 331 330 337 340 340 338 335 335 332 332 334 335 336 339 336 339 338 330 323 317 318 317 317 315 314 315 317 319 320 321 322 324 325 327 331 337 339 339 338 339 339 337 336
322 323 328 330 331 331 331 330 330 331 329 329 333 334 332 333 333 334 334 335 337 336 337 337 328 323 321 318 318 317 315 316 318 319 320 321 322 323 323 328 333 337 339 338 338 337 336 337 335
322 323 328 329 330 331 331 329 328 329 329 331 331 332 332 333 333 333 334 335 335 339 337 340 335 329 324 320 320 319 317 316 318 319 321 322 323 322 321 326 330 335 336 330 326 326 329 330 332
323 322 326 327 331 333 332 330 329 330 330 330 330 331 332 332 333 332 333 332 334 338 339 337 339 337 331 322 320 321 320 317 318 320 321 324 325 324 322 324 329 330 329 327 329 329 326 324 328
326 322 323 327 329 331 330 330 330 331 331 331 331 331 330 331 330 330 331 331 331 335 339 339 338 338 336 331 323 321 322 320 319 320 322 325 326 325 323 333 334 335 334 332 331 330 326 321 324
334 322 323 324 326 328 328 329 330 331 332 332 331 331 332 331 331 330 329 328 329 329 340 341 338 337 338 336 333 325 322 323 324 324 323 326 326 326 329 335 335 336 334 333 330 328 323 326 326
330 331 325 325 325 327 328 329 330 331 332 332 332 331 331 330 329 329 330 330 330 329 331 340 339 337 339 340 339 336 327 324 328 328 325 326 327 333 336 334 335 334 334 332 331 331 330 328 331
328 328 329 326 326 326 328 328 330 331 330 330 329 329 330 330 328 328 328 329 329 330 329 334 341 340 344 345 343 340 336 332 329 330 326 331 336 338 339 336 335 336 335 334 332 332 332 331 332
326 325 326 328 328 327 328 328 329 330 330 329 329 327 327 327 328 330 330 329 330 330 329 329 336 343 345 347 345 343 341 340 337 333 331 333 338 339 337 333 333 334 334 333 333 332 330 331 331
321 326 326 326 327 328 329 329 328 329 328 328 328 326 326 327 327 328 330 330 330 330 328 327 335 340 346 347 345 344 343 341 340 340 338 337 339 339 335 335 337 335 334 333 333 332 331 330 329
319 321 322 325 326 325 326 327 327 327 327 328 328 328 327 327 327 327 329 329 330 332 328 329 335 339 342 346 345 344 344 343 344 341 340 341 342 339 335 337 335 335 334 333 332 331 332 331 331
319 319 322 322 323 325 325 328 327 326 328 328 328 328 328 326 327 329 330 329 332 330 329 330 336 339 341 344 345 343 344 345 344 342 342 342 340 335 334 336 335 335 334 334 333 332 331 331 331
320 321 321 323 323 324 326 327 328 327 327 328 328 328 328 327 326 327 329 330 328 327 327 331 337 339 341 342 344 346 344 344 343 338 337 336 334 334 335 335 336 336 336 336 333 332 331 331 330
321 323 322 323 323 325 325 326 326 326 326 327 327 327 327 327 326 326 327 328 328 328 329 333 337 341 345 347 346 344 346 343 338 337 335 334 334 334 335 335 335 335 335 335 333 331 332 331 330
319 323 323 323 323 324 324 325 325 326 325 325 326 325 326 326 325 326 330 331 328 333 337 335 340 347 348 350 348 346 344 341 339 337 333 334 334 335 336 336 335 335 336 334 333 332 331 330 330
316 316 317 320 322 322 324 325 325 326 325 325 326 326 325 325 325 326 329 331 335 336 338 342 344 350 350 349 348 346 344 338 335 334 333 333 335 336 335 334 333 333 332 332 331 330 330 329 328
315 315 316 316 318 319 320 321 322 323 324 325 325 325 325 326 326 326 325 333 338 340 343 346 351 351 350 349 347 346 341 337 336 334 333 334 334 334 334 333 332 332 332 331 330 330 329 329 328
316 316 316 317 318 319 320 322 322 322 324 325 325 324 323 323 325 324 324 336 339 342 342 343 346 350 349 347 346 342 337 336 335 335 335 334 334 334 334 332 331 331 331 331 331 330 329 329 328
315 317 317 318 317 318 320 321 321 322 325 324 323 323 323 323 324 324 324 338 340 341 340 342 346 347 346 345 340 338 335 333 334 334 334 335 335 334 333 333 332 332 332 331 331 330 330 329 328
314 316 317 317 317 318 319 320 321 321 322 324 324 323 323 323 324 328 338 339 340 342 343 345 345 344 340 339 336 334 334 336 334 335 335 334 334 333 333 333 331 330 331 330 331 331 330 328 328
312 312 316 318 318 319 318 321 321 321 323 324 323 323 323 325 332 339 339 338 339 341 343 343 342 340 338 336 335 334 335 335 336 335 335 334 334 333 332 332 330 330 331 331 332 330 329 329 329
309 313 315 319 320 319 318 320 321 321 322 323 323 322 331 338 338 338 337 337 339 341 341 341 340 337 337 336 335 335 334 335 335 334 332 333 332 333 330 332 332 332 333 333 332 330 330 330 329
309 310 314 315 318 318 319 319 319 320 320 324 324 326 338 338 338 338 336 337 339 339 339 340 338 337 337 334 335 334 335 335 334 334 333 333 333 329 332 332 332 333 333 332 332 331 329 328 327
314 311 315 314 318 320 321 320 321 323 323 322 326 330 338 337 337 336 336 337 338 338 339 339 338 337 335 334 335 334 336 334 334 333 332 332 332 332 332 332 333 331 331 330 330 329 328 327 327
315 311 311 314 315 319 322 321 322 325 324 324 326 337 337 336 336 336 337 337 337 339 338 338 337 336 335 334 334 332 332 334 332 332 331 331 331 330 330 330 331 332 331 330 331 330 328 324 325
313 315 312 315 317 318 320 322 327 330 326 325 335 337 335 336 335 337 336 336 336 337 338 337 336 335 332 334 334 334 334 333 331 331 330 329 328 328 329 331 331 331 331 330 331 331 330 325 326

GFSSGP_925_thetae_030.txt.gz
Theta_e
323 315 315 324 325 326 328 330 327 335 335 335 334 331 332 332 334 338 335 338 340 336 322 320 320 317 316 315 313 311 313 315 315 315 315 315 315 315 315 315 316 319 323 323 321 322 323 327 332
319 316 320 324 326 329 329 326 327 337 338 337 336 330 336 339 336 336 340 341 340 327 323 321 320 317 317 316 313 312 313 315 316 316 316 316 317 317 316 317 319 323 330 330 331 333 334 334 334
318 321 318 324 327 328 328 330 337 339 337 336 337 335 333 337 337 337 339 341 338 328 324 321 319 317 317 317 314 312 313 316 317 317 317 318 318 319 319 320 322 328 333 334 335 336 336 336 336
321 324 321 326 331 330 332 331 332 339 338 335 335 337 331 332 334 338 339 341 338 329 324 322 320 318 318 317 315 313 313 315 317 318 318 318 319 319 320 322 324 328 335 337 338 338 339 338 338
323 320 322 326 329 331 332 332 330 338 339 336 335 336 332 333 337 337 338 339 337 332 325 323 321 318 317 318 316 314 314 315 317 318 319 318 319 320 321 323 326 329 335 337 339 339 339 338 337
322 320 325 327 327 329 329 328 328 338 338 337 336 333 330 333 337 339 338 337 336 335 330 325 322 319 318 318 317 316 314 315 316 318 319 319 320 321 322 323 326 331 337 339 339 338 336 335 335
320 320 325 328 329 330 330 330 328 328 329 330 330 332 331 331 334 337 338 337 337 336 336 330 324 320 319 319 318 317 315 315 316 318 319 320 321 322 323 323 327 333 337 338 334 331 330 328 328
320 319 324 324 328 329 330 328 327 327 330 329 329 331 331 329 333 334 336 337 337 337 337 336 331 322 319 318 318 319 317 315 316 317 319 321 322 324 324 322 326 329 330 331 328 328 329 328 326
322 322 322 323 326 327 327 327 328 329 329 329 330 329 328 332 332 332 332 332 335 340 338 338 336 329 321 320 319 319 319 317 316 317 319 321 324 325 326 323 326 331 332 333 332 331 330 328 325
332 328 324 321 324 324 324 326 326 329 329 330 330 330 331 331 329 327 328 327 328 338 340 340 338 336 330 324 323 320 319 319 317 318 319 321 324 326 326 324 331 334 335 335 333 331 329 324 324
332 335 327 323 322 323 323 324 326 327 328 328 330 330 330 330 328 326 326 327 329 329 337 340 339 338 338 335 328 329 325 322 321 321 320 321 324 327 327 328 334 334 335 336 334 331 330 328 328
329 331 333 331 328 326 325 324 325 326 326 327 327 327 328 327 327 326 325 328 329 329 329 333 338 339 338 340 335 334 331 326 327 327 324 323 326 327 327 333 334 334 334 334 334 331 331 331 330
320 326 327 326 327 327 326 326 326 326 326 327 328 327 326 324 324 326 327 329 329 328 328 328 334 339 339 341 339 339 336 332 329 331 328 325 327 327 331 337 336 335 335 335 334 332 331 332 331
314 316 321 323 323 323 326 327 328 328 328 328 327 325 324 324 323 325 326 328 328 329 329 327 333 337 341 341 340 340 340 338 335 332 329 328 327 327 335 338 336 333 334 334 333 332 332 331 331
314 315 317 318 319 323 324 326 327 327 326 325 325 324 324 324 324 323 326 328 329 329 329 328 330 337 341 342 342 342 343 341 338 335 332 330 329 329 337 338 335 335 336 334 333 332 332 331 330
318 317 318 319 319 319 322 325 326 325 324 325 325 325 326 325 325 326 327 327 328 329 329 329 329 334 340 344 344 344 344 343 342 340 338 339 336 335 339 337 335 336 335 334 333 333 331 331 331
315 322 319 319 320 321 321 323 324 323 324 324 324 325 325 326 325 324 326 327 327 329 330 328 329 333 337 343 344 344 344 343 342 341 341 340 339 339 340 335 335 335 335 334 334 334 333 331 331
319 320 320 320 320 321 321 322 322 323 323 323 323 324 325 325 325 325 326 326 327 329 330 328 330 335 338 343 344 344 344 344 343 343 342 341 342 341 336 334 334 334 334 334 334 334 333 331 331
317 318 320 320 320 321 322 322 323 323 323 322 323 324 324 323 323 324 325 326 325 328 327 328 333 341 341 344 347 345 344 344 342 341 339 339 338 333 333 335 334 334 334 334 332 331 331 331 330
313 314 316 316 316 320 321 322 322 322 323 322 323 323 323 322 322 322 323 326 328 330 331 333 335 339 344 345 344 345 342 338 337 336 335 334 333 334 335 334 335 336 334 332 331 330 330 329 329
313 313 315 316 315 315 315 316 317 318 318 319 320 321 321 323 322 322 322 324 329 334 336 337 338 344 347 347 346 344 341 338 336 334 334 333 334 335 335 335 334 332 332 331 330 330 329 328 328
313 313 314 314 315 315 316 316 316 317 317 318 319 319 320 320 321 322 322 328 333 337 341 345 347 348 348 348 346 343 337 335 335 334 334 334 336 336 334 333 332 331 331 330 330 330 329 329 327
310 313 315 315 315 314 315 317 317 317 319 319 319 319 321 320 318 319 320 329 336 342 346 349 349 349 348 347 346 343 339 337 335 334 333 334 334 334 333 332 332 331 331 331 330 330 330 329 328
308 312 312 313 313 315 315 315 316 316 317 319 320 319 320 319 318 329 328 336 338 341 345 348 348 348 347 346 344 341 336 335 334 334 334 335 334 334 333 333 332 330 329 330 330 330 330 329 328
306 307 311 314 315 317 315 316 317 316 317 318 318 319 319 318 323 336 336 337 339 341 343 344 344 343 341 338 336 335 334 334 334 334 334 333 333 332 331 332 332 330 329 331 331 330 329 329 328
305 305 311 314 317 316 316 317 316 316 317 318 319 319 321 332 333 336 336 338 340 341 342 340 339 338 337 334 335 334 335 335 334 334 333 333 333 332 331 330 330 331 332 332 332 331 329 328 329
310 306 307 310 312 315 316 316 317 317 317 317 317 323 335 335 335 336 337 339 339 338 339 338 337 337 335 335 334 334 334 334 333 332 332 331 332 331 329 331 331 332 332 332 331 328 328 328 328
311 311 309 308 314 315 317 318 318 318 318 318 317 333 336 335 336 337 338 337 337 337 338 337 337 334 335 334 334 334 334 334 333 332 331 331 330 330 331 331 332 332 331 330 330 328 327 327 327
309 313 308 309 310 315 317 318 317 317 317 318 317 335 336 336 336 337 337 336 336 337 336 336 335 333 334 334 334 334 333 333 332 331 330 331 331 331 330 331 332 332 330 330 329 327 326 324 324
311 310 311 311 310 313 315 317 317 318 318 323 327 337 335 335 336 336 336 335 336 336 336 335 335 334 334 334 333 333 333 332 331 331 330 330 330 330 330 331 331 331 331 329 330 329 327 324 326

GFSSGP_925_thetae_033.txt.gz
Theta_e
324 317 317 322 323 324 327 327 326 331 335 334 334 329 332 331 335 334 333 335 335 328 328 321 317 314 313 312 311 313 315 314 314 314 314 314 313 313 312 312 312 313 316 318 318 317 319 322 324
320 316 320 322 323 327 323 325 327 333 337 335 331 332 335 338 335 337 335 338 339 331 323 321 318 316 314 313 312 313 315 315 315 314 315 315 315 315 314 314 315 316 320 321 321 326 329 331 333
319 321 319 323 325 325 325 326 334 338 336 335 335 332 334 337 336 336 336 337 339 336 326 320 319 316 316 314 312 313 315 316 316 315 315 316 316 316 316 316 318 320 330 332 332 334 334 335 336
322 322 318 324 327 327 325 329 330 335 336 332 334 334 330 335 336 336 336 338 338 335 325 321 319 317 317 316 314 313 314 316 317 316 316 316 317 317 318 319 321 324 333 335 336 337 338 338 338
323 318 320 324 326 328 329 329 327 328 336 334 333 334 331 332 335 337 337 339 339 330 324 323 320 318 317 317 315 314 314 315 317 317 317 317 317 319 320 321 323 326 334 337 338 338 339 339 339
321 319 324 322 323 325 327 326 327 329 334 336 335 332 331 331 337 337 337 338 339 331 326 324 321 319 317 317 316 315 313 315 316 317 318 318 318 319 320 322 324 327 334 337 339 339 337 336 336
319 320 324 326 328 328 329 327 328 331 327 333 331 331 329 331 337 337 336 337 339 334 329 326 323 320 318 317 317 316 314 314 316 317 318 318 319 319 320 322 324 329 334 336 339 338 335 333 333
317 318 323 323 326 327 328 326 327 327 329 327 330 331 331 330 335 338 341 340 339 336 332 328 326 321 318 317 317 317 315 314 315 316 318 319 320 320 322 322 324 327 331 332 331 331 330 331 331
317 320 321 323 324 326 325 327 328 328 328 327 328 329 328 331 331 333 340 341 341 339 336 330 328 326 321 318 317 316 315 314 314 315 317 319 321 323 324 322 322 325 329 331 332 331 330 330 330
324 320 320 320 322 324 321 322 323 326 326 326 326 329 330 330 330 328 327 328 334 340 339 337 334 330 326 321 322 318 317 316 314 315 317 319 323 324 325 324 323 325 331 333 333 332 331 330 328
330 331 322 322 322 322 322 322 322 324 325 325 327 327 327 328 325 324 326 328 329 333 337 338 338 336 332 327 326 323 321 319 318 317 319 320 324 325 328 326 325 327 333 334 335 334 331 330 329
332 331 331 328 325 326 326 325 324 323 324 324 325 325 326 325 324 323 323 326 327 326 328 333 337 339 338 333 330 328 327 324 321 321 322 322 325 326 328 327 326 331 333 334 335 335 333 331 330
321 328 327 328 327 329 329 329 328 326 325 324 325 325 325 325 323 324 326 326 327 325 326 330 335 338 340 339 334 333 329 329 325 326 327 324 324 324 327 326 326 333 334 334 334 334 333 331 331
314 317 318 320 322 322 324 324 324 325 326 326 327 326 323 322 321 322 324 324 326 327 328 327 330 335 341 341 339 338 335 333 332 329 330 328 325 324 325 325 328 335 335 334 334 334 333 332 331
313 313 315 315 315 316 320 322 324 323 324 325 326 324 323 321 322 321 324 325 326 326 327 327 327 329 336 340 340 340 339 338 336 333 332 330 329 326 323 325 333 337 335 333 335 333 332 332 331
316 313 314 316 316 317 319 324 323 323 324 325 324 322 323 323 321 323 324 324 326 326 326 327 326 327 333 337 340 340 340 340 339 337 335 334 331 329 328 327 335 337 334 336 334 333 332 332 331
314 319 318 318 318 318 319 322 322 321 322 322 322 322 322 322 321 323 324 325 326 326 326 326 326 328 331 337 340 341 341 340 340 339 338 335 333 331 329 329 337 335 335 335 334 333 332 332 331
317 318 319 320 318 318 319 320 321 321 320 321 320 321 321 321 321 322 323 324 325 325 325 325 327 328 334 341 342 342 342 341 341 341 340 339 337 337 334 335 337 334 335 334 334 333 333 332 331
312 315 317 318 317 318 319 319 319 319 320 320 321 322 322 321 320 322 323 323 324 325 324 326 327 328 335 343 342 342 342 342 341 341 341 340 340 339 337 338 337 334 334 333 333 333 331 331 330
310 311 312 314 315 315 317 318 317 318 319 320 320 320 320 320 320 320 320 321 323 324 325 326 327 328 334 340 342 342 340 341 342 342 342 342 341 341 340 335 333 334 334 334 333 332 330 329 329
309 311 312 314 314 314 314 315 315 315 314 316 317 318 318 318 319 318 318 319 322 324 326 328 327 329 338 341 343 341 340 340 339 340 340 337 337 336 338 332 334 334 334 332 332 330 329 328 328
307 310 312 314 313 314 314 316 314 314 314 315 314 315 316 317 317 317 318 318 321 324 328 333 333 338 343 343 343 339 336 334 335 336 336 334 334 332 333 334 335 334 332 330 330 330 329 328 326
309 308 310 313 313 312 313 313 313 313 313 313 314 314 315 316 316 316 316 316 321 329 335 342 343 344 345 345 343 339 335 335 335 334 334 333 334 334 335 335 333 331 331 329 330 330 329 328 327
306 307 309 309 311 313 313 313 314 313 313 313 315 316 316 315 315 315 317 321 331 336 343 345 345 345 345 345 343 341 338 336 334 333 333 334 335 335 333 332 332 331 328 329 329 329 329 329 328
305 304 309 311 312 314 313 314 314 313 314 314 314 314 314 314 314 318 331 333 335 341 342 344 345 342 344 344 341 341 339 337 334 333 333 334 333 333 333 332 332 331 329 329 329 330 329 329 328
304 303 307 313 315 313 313 315 315 313 314 315 314 313 313 314 318 322 332 334 338 339 341 342 341 339 342 341 338 336 334 333 334 333 334 333 333 332 331 330 330 329 329 330 330 329 328 328 328
309 304 305 306 308 310 313 313 314 314 315 314 314 313 313 319 332 333 335 337 338 337 336 339 337 335 335 334 334 333 333 333 333 333 333 332 332 332 330 329 330 330 331 331 330 329 326 328 328
308 309 305 304 310 313 313 314 316 315 314 315 315 314 317 333 334 336 337 336 336 336 336 337 335 333 333 333 333 333 333 333 332 332 331 330 331 328 329 330 331 332 331 330 330 329 327 327 327
307 310 309 306 306 312 314 314 313 315 315 315 314 316 326 333 335 337 336 334 335 334 334 333 333 333 333 333 333 333 333 333 332 331 330 330 329 329 330 331 331 331 330 330 330 328 326 327 325
309 309 310 310 310 309 311 313 313 312 312 313 316 324 332 333 335 336 335 334 334 333 333 332 333 333 333 333 333 333 332 331 330 330 330 330 330 330 330 330 330 331 330 329 330 328 327 325 325

GFSSGP_925_thetae_036.txt.gz
Theta_e
325 321 316 320 321 322 325 323 324 324 334 332 331 330 334 333 333 334 332 333 328 331 326 319 317 315 313 311 312 313 313 312 312 312 312 312 311 311 311 310 311 312 314 317 319 318 317 316 318
322 314 320 320 319 325 319 323 325 325 335 333 333 332 334 334 332 334 332 335 332 329 326 319 317 315 313 311 312 314 314 313 313 313 313 313 313 312 312 312 312 313 316 319 318 320 325 329 330
318 320 319 323 322 322 320 324 326 331 334 335 333 331 333 336 335 334 332 334 336 328 329 321 318 316 314 313 311 313 315 314 314 314 314 314 314 314 314 314 315 318 325 329 328 329 331 333 335
323 320 318 323 327 325 322 327 328 327 329 333 332 333 330 334 335 333 330 334 337 330 329 322 318 316 315 314 312 312 315 315 315 315 315 315 315 315 316 317 318 321 330 332 333 334 334 337 337
321 317 320 322 323 325 326 326 326 326 328 331 331 332 330 331 335 334 331 334 336 334 330 322 319 318 316 315 313 312 314 315 316 316 316 316 316 316 317 318 320 327 333 335 337 336 337 338 339
320 318 322 320 321 323 323 324 326 326 327 332 335 331 330 330 335 336 334 335 335 335 333 326 320 319 317 316 314 313 313 315 316 316 316 316 317 317 318 319 322 328 335 336 336 336 334 331 331
320 319 322 324 327 327 326 324 326 327 328 331 331 330 329 329 335 337 337 337 338 336 334 329 323 320 317 316 314 313 312 314 316 316 317 317 317 318 319 319 322 327 332 334 335 337 336 332 331
316 317 322 322 324 324 325 326 326 326 328 327 328 329 330 328 333 338 339 339 340 338 333 329 326 325 322 317 316 314 313 313 314 316 317 318 318 318 319 320 321 325 329 332 334 334 332 331 330
315 318 319 322 324 323 324 323 326 325 328 325 327 328 328 328 332 335 340 340 340 339 337 332 329 327 325 323 318 316 314 313 313 315 317 318 319 319 320 321 322 323 328 330 332 332 331 330 329
320 318 318 318 321 323 323 321 321 324 323 325 325 327 327 329 330 329 331 335 338 339 338 336 334 330 330 328 323 324 318 315 313 315 317 319 320 320 320 321 322 322 325 330 332 332 332 330 328
328 326 318 317 319 321 322 321 321 322 323 323 324 325 323 324 325 326 328 332 336 336 337 338 337 333 330 332 329 326 323 320 319 316 318 321 322 322 324 324 324 323 324 331 334 334 333 331 329
331 329 327 325 324 324 322 323 323 323 322 322 322 322 322 323 322 322 323 325 329 331 332 332 336 338 336 333 332 330 328 324 322 321 320 322 327 325 326 325 324 324 324 331 334 335 334 333 330
329 328 329 330 330 328 328 331 329 329 328 325 325 325 324 323 322 323 324 325 325 325 326 328 328 330 335 338 336 333 330 328 325 327 323 325 327 325 325 325 325 325 325 331 334 335 335 334 332
314 317 323 324 324 323 325 325 324 325 325 326 325 325 324 323 322 322 322 322 323 325 326 326 325 326 332 338 338 337 334 332 331 329 327 329 328 327 324 323 325 325 326 332 334 334 334 334 332
311 313 313 314 316 320 322 324 325 323 323 323 323 323 323 323 320 319 322 323 324 324 324 324 325 325 329 333 338 338 336 335 333 332 331 330 331 328 323 321 323 325 324 333 334 334 334 333 332
313 311 315 316 314 315 319 323 323 322 323 323 323 322 322 322 319 321 322 323 324 324 323 324 323 324 326 330 336 339 338 337 336 335 334 333 332 329 326 323 323 323 325 335 333 333 333 332 331
312 317 314 315 315 316 317 321 320 320 320 321 320 320 320 320 319 320 321 322 322 323 324 324 324 323 324 328 335 338 339 339 338 337 336 335 334 331 329 327 324 325 329 335 334 334 333 332 332
313 316 317 318 316 316 317 318 318 319 320 320 320 319 319 319 318 319 321 322 323 324 324 323 323 323 324 329 337 339 339 339 339 339 338 338 336 335 333 331 327 327 336 334 334 333 333 332 332
311 312 314 316 316 317 317 318 318 317 317 318 318 319 319 319 320 320 320 322 323 322 322 322 322 323 326 336 340 340 339 339 340 339 339 339 338 335 334 332 330 330 335 334 334 333 332 332 331
309 310 310 312 312 313 313 313 313 313 314 316 317 318 317 317 316 317 318 320 320 321 321 322 323 322 328 336 340 340 340 337 340 341 341 340 338 337 337 336 334 336 334 334 333 333 331 330 329
308 309 310 312 312 312 312 314 315 314 312 313 313 314 315 317 318 318 317 317 319 319 321 321 323 323 328 336 339 340 340 339 339 340 340 340 339 339 338 338 338 336 334 334 333 331 331 329 327
306 309 310 312 312 313 311 315 314 314 314 313 312 312 313 313 314 315 314 315 317 319 320 322 326 326 329 337 340 340 339 337 339 340 340 340 340 339 339 339 334 332 334 334 332 330 329 328 326
306 306 307 311 311 311 312 311 313 311 311 310 311 312 312 312 312 312 313 314 316 317 320 329 334 335 337 340 341 340 339 338 339 340 340 337 338 334 337 337 332 334 334 331 330 329 329 328 327
307 308 307 307 309 311 311 311 312 311 311 311 310 311 311 310 310 310 311 313 316 323 332 339 340 341 341 342 341 340 338 336 336 335 334 334 334 334 333 334 335 334 331 330 328 329 329 329 328
304 303 307 309 309 309 310 311 312 310 311 311 313 312 311 311 311 310 311 322 328 334 337 341 341 340 341 341 339 338 337 335 335 334 333 332 334 334 334 333 332 331 330 328 328 328 329 329 328
303 302 306 314 314 310 309 314 312 311 312 311 311 310 310 310 309 310 314 327 334 335 338 340 340 339 340 338 337 336 336 335 334 333 332 333 333 333 333 332 331 331 330 329 329 329 329 327 328
307 304 305 305 306 306 309 310 311 312 312 312 311 311 311 310 310 327 332 334 335 336 337 338 338 338 337 337 337 336 335 333 332 332 333 333 333 332 330 329 329 329 329 330 330 330 329 327 327
307 305 304 302 307 311 310 311 312 312 311 313 313 312 311 311 331 334 334 334 334 335 336 337 338 336 336 335 334 333 332 333 333 332 332 332 331 331 328 329 330 331 331 330 330 330 329 327 327
306 308 307 303 304 310 313 312 310 312 312 311 313 321 321 320 332 334 334 334 332 333 333 332 333 333 332 333 332 332 332 332 332 331 330 330 328 328 329 330 330 330 330 329 329 329 328 327 327
307 307 309 310 310 306 308 308 308 310 311 312 315 322 331 331 333 334 333 334 332 330 330 331 331 332 332 332 332 332 332 331 331 330 329 328 328 329 329 330 330 330 330 329 328 329 327 326 325

GFSSGP_925_thetae_042.txt.gz
Theta_e
316 326 318 324 326 323 323 324 326 337 337 336 335 339 340 339 340 342 340 340 339 339 342 324 317 316 316 315 314 313 315 317 322 328 330 329 326 321 317 316 317 315 316 316 317 317 318 321 320
327 324 320 323 323 324 324 326 329 334 336 336 337 340 339 340 338 338 337 340 340 341 343 337 317 316 316 314 314 314 313 314 315 316 316 316 315 314 313 311 311 313 325 326 324 321 320 322 326
328 318 322 323 322 323 325 325 330 330 333 337 338 336 339 340 339 337 337 339 340 343 343 338 317 316 315 314 313 314 314 313 313 313 313 313 312 311 311 311 311 313 320 327 327 322 327 328 329
322 321 322 323 324 323 324 331 328 333 333 335 337 337 335 337 339 337 339 338 340 342 342 339 319 317 316 314 313 314 314 313 313 312 312 312 312 312 312 312 313 315 324 327 327 327 329 330 333
323 322 320 322 322 324 325 325 330 333 331 332 335 337 337 337 339 337 338 337 338 341 341 341 327 317 316 314 313 313 314 313 313 313 313 312 313 313 313 314 315 319 327 329 327 329 330 332 335
323 323 322 322 323 323 324 324 325 328 329 330 334 336 337 338 339 337 338 339 338 340 341 340 330 318 317 315 313 312 314 314 313 313 313 313 314 314 314 315 317 321 331 334 334 330 331 333 335
325 321 321 321 321 321 322 323 324 326 328 333 335 337 337 337 338 338 339 340 340 342 343 341 344 326 318 316 314 313 313 314 314 314 314 314 315 315 316 316 318 321 327 333 335 334 334 333 331
326 326 325 323 321 322 322 325 324 325 327 333 335 338 338 337 339 341 340 341 342 343 343 344 344 342 339 336 318 314 312 312 314 314 314 315 316 316 317 317 320 322 325 331 334 336 336 336 332
324 327 327 325 323 321 322 323 324 326 330 332 333 335 332 334 339 341 340 339 339 340 343 344 343 343 342 338 337 320 317 315 314 317 317 320 330 332 331 328 329 322 325 331 333 335 336 336 331
327 328 328 326 324 321 320 322 324 327 328 333 332 331 330 331 338 340 341 339 339 341 343 344 345 344 344 340 339 342 338 337 335 332 334 333 332 332 332 331 329 326 325 331 332 335 337 337 337
329 329 328 328 325 321 320 323 324 325 327 333 334 332 331 330 332 333 336 337 339 339 339 343 346 346 345 343 341 341 341 339 338 336 334 335 332 332 333 332 334 333 330 335 334 337 338 338 337
327 328 329 328 326 322 322 322 323 324 324 329 330 330 329 331 332 332 332 332 333 332 333 335 343 347 347 344 343 343 342 341 340 339 337 335 335 334 335 333 333 333 332 334 336 338 339 339 338
324 325 326 327 327 327 324 324 325 326 326 326 326 327 329 331 332 331 330 331 331 332 332 332 335 346 348 348 344 344 344 342 342 341 340 339 336 335 336 333 332 332 332 334 335 336 339 338 338
320 321 323 325 326 328 328 329 329 329 329 330 331 332 332 330 330 330 330 330 330 330 332 333 334 339 345 340 343 344 346 343 343 342 340 341 338 336 335 334 334 332 332 333 333 335 337 337 337
317 318 320 323 324 326 326 330 331 329 329 331 331 331 331 331 330 330 329 329 331 331 331 334 334 335 337 340 339 342 341 343 341 342 342 341 341 337 336 335 334 332 332 332 333 334 337 337 337
315 317 319 320 322 323 325 330 330 329 329 330 330 330 330 330 330 329 329 329 331 332 332 333 331 329 331 334 337 338 339 341 342 341 342 342 342 341 338 336 334 332 332 333 333 333 334 335 336
316 317 318 319 320 322 322 326 327 327 327 328 329 329 329 329 330 328 328 329 329 330 332 332 332 332 333 332 337 338 342 343 342 342 342 342 342 342 340 339 335 333 332 332 332 333 332 334 338
314 317 317 317 319 321 322 323 323 324 326 326 327 328 328 328 328 327 327 327 327 328 330 331 329 330 336 333 338 339 342 343 342 342 342 342 342 342 341 339 337 336 334 332 332 331 333 339 337
312 315 317 318 318 319 321 322 323 324 324 325 326 326 327 327 327 325 325 325 326 326 328 331 332 335 337 333 336 339 341 343 343 343 343 343 342 342 341 341 340 338 334 333 333 333 339 337 335
311 313 316 317 317 319 320 321 322 322 323 324 325 326 326 326 326 326 325 325 326 327 329 332 333 334 337 333 338 338 341 342 344 344 344 343 343 343 341 341 340 338 336 334 333 338 337 336 337
310 311 313 315 316 318 319 321 322 322 323 323 323 324 324 324 325 325 325 324 324 326 328 331 332 335 336 335 339 344 345 344 342 342 344 344 343 341 341 341 340 339 336 336 338 338 337 335 335
310 309 310 313 316 318 319 321 321 321 322 322 322 323 323 324 324 324 324 325 324 325 325 327 330 332 334 338 339 344 344 343 342 344 344 342 341 342 343 342 341 339 338 340 338 337 336 336 335
310 309 309 312 314 317 317 319 319 320 321 321 322 322 322 322 323 323 323 323 322 322 323 325 327 330 335 339 341 345 344 344 345 345 342 341 342 343 343 342 341 341 340 339 336 337 338 336 334
310 309 310 310 313 316 317 318 319 319 320 320 320 321 321 320 321 321 322 321 321 322 323 324 327 335 340 343 344 346 345 345 346 347 345 345 345 344 343 341 340 340 338 340 338 337 336 335 331
309 309 311 312 313 314 315 316 317 319 318 318 319 319 320 321 322 322 323 324 324 325 327 334 339 343 344 344 344 346 348 347 348 347 347 346 344 343 343 342 340 339 339 338 337 336 334 333 331
310 309 311 312 313 313 312 314 316 316 317 318 318 320 320 322 326 327 328 327 325 325 332 339 342 345 345 345 346 347 348 348 348 347 346 344 342 339 341 341 340 339 338 337 336 334 332 332 333
313 312 311 311 312 315 312 313 314 315 317 318 319 319 324 327 330 334 334 333 332 334 339 342 345 346 346 347 347 348 347 347 346 345 342 339 337 340 340 339 339 338 336 335 334 332 333 333 333
311 311 311 311 317 315 313 314 315 316 316 316 320 321 321 326 334 336 336 339 338 340 343 345 346 347 346 346 346 345 345 344 344 341 338 338 339 338 339 338 337 335 334 334 333 333 334 333 333
312 311 315 314 315 313 313 314 316 318 320 321 320 320 322 330 339 339 340 339 341 345 346 347 347 346 346 345 344 344 343 340 339 339 339 339 339 338 336 334 333 333 333 334 334 334 333 333 332
312 312 315 320 315 314 315 317 319 320 319 319 319 319 321 328 339 338 339 342 346 346 346 346 346 345 344 343 342 340 339 339 339 338 338 338 335 333 332 332 332 333 333 334 334 333 332 332 328

GFSSGP_925_thetae_045.txt.gz
Theta_e
318 323 323 323 327 325 327 325 328 330 331 333 336 335 338 339 341 344 343 336 336 338 348 323 317 316 316 315 315 315 324 337 342 343 343 341 342 341 338 329 320 317 318 317 314 313 315 318 318
320 323 322 325 325 327 325 327 327 333 336 338 339 339 341 341 340 341 342 337 337 341 346 334 317 316 316 315 314 314 321 330 337 338 338 338 338 336 327 319 316 316 317 322 323 322 321 320 321
331 325 322 323 326 325 327 327 329 332 335 337 339 339 339 340 340 339 338 338 338 343 346 342 319 317 316 315 314 314 315 322 329 333 333 332 328 322 318 316 313 314 327 330 331 326 322 328 329
328 323 322 325 325 326 326 329 330 334 335 337 339 338 338 339 340 339 338 337 339 341 344 342 329 317 316 315 314 314 314 315 318 321 323 320 317 316 314 312 312 314 330 334 333 331 331 331 331
325 325 323 323 324 326 326 327 333 334 337 338 338 339 338 337 338 339 338 336 338 340 342 343 337 317 316 316 314 314 314 314 314 314 315 315 314 313 313 312 313 316 331 334 333 334 330 329 334
327 323 324 325 324 325 326 327 327 331 336 336 337 338 339 337 338 338 335 336 337 339 342 347 340 325 317 316 314 313 314 314 314 313 313 313 312 312 314 314 314 317 327 333 334 333 331 331 334
329 326 324 323 324 326 326 326 326 328 332 335 334 336 338 338 338 336 334 335 336 339 342 350 350 338 320 318 315 313 313 314 314 314 313 313 313 313 314 314 315 318 323 331 333 333 333 333 333
329 329 329 326 323 322 324 325 325 325 328 331 334 337 338 338 337 336 336 337 336 339 341 342 352 346 339 337 318 315 313 313 314 314 314 314 314 315 315 315 316 318 323 330 332 335 335 334 333
329 331 331 329 327 326 325 324 325 328 328 329 333 336 336 338 340 338 337 337 337 338 341 343 344 347 343 340 339 321 316 314 314 317 316 319 331 332 331 326 327 319 322 328 332 333 336 335 336
330 332 331 329 328 326 325 324 325 325 327 330 335 335 333 336 337 339 338 338 337 338 340 343 344 345 346 341 340 343 340 338 336 334 334 334 331 330 332 331 326 329 323 328 329 333 336 338 338
329 332 330 329 328 328 327 324 325 325 327 330 333 335 334 334 337 340 338 337 337 337 338 341 348 348 347 345 341 342 345 341 340 338 335 335 332 331 333 333 333 332 332 333 334 337 338 338 338
327 327 329 330 329 329 328 324 324 325 327 327 331 335 334 333 335 338 339 338 338 339 339 338 343 351 350 346 345 344 344 345 343 342 340 336 337 334 334 334 334 334 334 334 335 336 338 339 340
322 325 326 327 329 329 329 328 326 326 326 327 327 331 333 333 333 334 334 334 335 335 335 335 336 348 351 351 346 345 344 344 344 344 344 341 339 337 335 336 334 335 335 335 335 336 338 340 339
319 321 322 323 326 327 329 329 329 329 327 327 327 326 329 331 331 333 333 333 334 333 334 334 335 339 352 351 347 348 347 343 344 344 345 344 342 340 337 337 337 334 335 334 335 335 336 339 338
318 319 319 321 323 324 327 329 330 329 329 330 329 329 330 332 333 334 332 332 332 333 334 333 335 337 345 351 351 349 344 343 344 343 344 346 344 342 341 339 338 336 334 334 335 335 336 338 338
317 319 320 320 321 322 323 327 328 328 330 331 331 331 331 332 333 331 331 331 331 333 334 335 334 333 339 342 344 341 340 342 342 343 343 346 347 344 343 340 339 338 336 334 335 334 334 338 337
313 318 320 319 320 321 321 325 325 326 329 330 331 332 332 332 333 332 331 331 332 332 334 335 335 335 334 336 338 338 339 340 341 343 344 345 346 346 345 341 340 339 337 335 335 334 335 336 335
313 314 315 318 319 320 320 323 323 324 326 329 330 330 331 331 332 331 330 330 331 332 333 335 335 335 337 336 337 337 338 340 343 344 344 345 347 346 345 343 342 340 337 335 335 335 334 333 333
314 313 314 316 318 319 319 321 322 323 324 325 327 329 332 332 330 329 329 329 329 330 332 333 334 336 336 333 335 334 337 340 344 345 345 345 347 346 344 344 343 341 338 338 337 336 335 333 338
312 312 314 314 315 318 321 321 321 322 324 325 325 327 328 329 329 330 329 328 330 330 332 333 335 337 339 336 336 333 336 339 343 345 346 347 347 346 345 345 344 342 341 339 337 336 335 336 339
312 313 312 313 315 317 319 320 321 322 322 323 324 325 326 328 328 329 329 331 328 330 331 332 334 337 340 337 337 339 341 344 344 347 348 347 346 345 344 344 345 343 342 339 338 337 338 340 338
312 312 312 312 312 314 316 321 321 322 323 324 324 325 326 326 327 328 330 332 330 329 327 329 332 335 339 342 336 338 343 344 347 347 346 345 345 345 344 343 344 343 342 340 338 340 341 339 336
313 312 312 312 312 313 314 317 319 320 323 323 323 324 324 325 325 325 326 327 325 325 327 328 330 336 337 339 337 337 344 344 345 345 349 345 344 342 344 344 343 344 341 341 341 341 340 338 338
312 313 313 312 312 313 313 316 318 320 321 322 323 323 324 324 324 325 325 323 323 323 324 325 329 335 336 337 343 345 346 348 347 349 345 344 344 344 345 344 343 343 342 341 341 339 339 338 337
314 315 315 312 314 313 313 314 317 318 320 321 321 322 323 323 323 323 324 324 325 325 324 325 328 331 334 340 344 346 349 351 352 348 346 345 346 346 344 344 342 342 341 341 339 339 339 338 335
317 315 313 312 312 312 316 316 315 318 320 321 320 320 321 322 323 324 325 325 327 326 325 328 333 339 343 345 347 349 350 350 351 348 349 347 347 346 345 344 342 340 339 340 339 339 337 335 333
315 317 314 311 312 313 316 316 317 316 318 319 320 321 321 325 327 329 331 331 332 327 327 332 338 343 346 347 348 350 350 350 349 351 349 347 346 345 344 342 341 339 339 338 338 336 335 334 334
315 314 320 313 314 313 314 316 317 316 316 319 320 322 323 324 327 332 333 333 336 332 335 341 344 347 348 349 350 350 351 351 350 348 346 343 342 340 340 338 339 339 338 337 336 334 334 334 334
315 314 316 316 317 315 316 319 318 318 317 319 320 322 323 328 336 339 341 343 341 340 341 344 346 348 348 349 350 349 348 348 346 343 341 342 340 339 338 338 338 336 334 334 335 335 336 334 335
313 313 313 320 318 315 315 319 318 320 322 319 322 321 322 323 338 341 340 343 344 344 346 346 347 347 348 348 347 347 346 343 342 341 340 340 338 337 336 335 333 333 333 334 334 334 334 333 334

GFSSGP_925_thetae_048.txt.gz
Theta_e
316 318 326 324 325 325 325 325 327 328 329 330 331 334 335 337 346 350 338 337 343 331 325 321 318 317 316 315 314 318 328 337 341 344 346 346 344 341 340 338 332 322 318 316 315 313 315 318 317
321 322 324 324 326 326 327 326 327 328 332 333 336 336 338 340 343 344 339 338 343 329 326 322 318 318 316 315 314 317 323 333 340 342 344 344 341 339 336 331 320 316 315 313 315 319 320 322 320
323 326 326 322 324 327 326 328 327 329 337 338 338 338 340 341 342 342 337 338 345 335 327 324 319 318 317 315 314 314 317 325 334 337 340 341 337 337 332 321 316 314 313 318 323 325 324 327 330
330 329 324 322 324 325 326 327 328 330 335 337 338 339 339 340 341 340 337 337 345 345 334 327 321 318 317 316 314 314 315 320 326 331 336 336 331 329 322 316 315 312 317 329 328 328 328 332 333
330 326 323 322 322 325 326 327 327 331 334 334 336 340 339 339 340 338 338 338 343 346 345 335 320 318 317 316 314 314 314 315 320 324 327 329 324 320 316 314 312 313 321 328 332 328 329 330 333
328 326 326 325 324 324 325 326 327 329 333 337 337 339 339 338 338 337 338 338 340 343 344 341 334 317 317 316 315 314 314 314 315 317 319 318 317 315 314 313 312 313 318 327 330 328 328 329 330
332 328 325 323 322 324 324 325 325 327 328 333 336 338 338 338 337 339 336 337 338 341 344 343 339 326 317 317 316 314 314 314 314 314 315 315 315 314 313 313 313 314 317 325 329 329 329 329 330
329 330 330 328 327 324 324 324 325 326 326 330 334 335 337 340 338 337 335 336 338 342 343 346 344 339 321 317 316 315 314 314 314 314 314 314 314 313 313 314 314 315 317 323 327 329 331 331 332
326 331 333 330 329 329 327 326 326 325 325 326 329 331 336 339 338 336 335 336 337 341 347 352 353 348 338 331 323 317 315 314 314 315 315 314 315 316 316 315 316 316 317 322 326 330 333 333 334
326 330 331 330 329 329 328 327 326 325 325 327 329 331 335 337 338 338 337 337 337 340 342 343 349 350 343 340 340 334 319 317 315 316 318 317 318 325 328 328 323 325 320 321 324 329 333 335 338
325 329 330 330 329 329 328 328 327 325 325 326 329 331 335 335 340 340 337 337 338 338 340 343 345 347 347 344 341 340 338 334 330 329 328 332 328 329 333 333 332 328 327 326 328 331 335 339 338
323 325 327 329 330 330 330 329 328 327 326 326 327 331 335 335 337 339 339 338 338 338 340 347 345 346 347 347 344 343 345 345 342 339 335 335 337 335 332 333 335 332 331 330 333 334 338 337 338
318 321 324 326 327 328 328 330 330 328 327 327 327 328 330 337 336 336 338 338 336 337 339 339 348 348 347 346 349 344 345 347 345 344 343 339 338 337 336 335 335 337 333 335 332 337 336 338 338
319 319 319 320 323 326 328 328 330 330 330 329 328 328 328 335 335 335 335 336 336 336 336 336 347 346 347 344 347 350 345 346 346 347 345 344 341 341 338 337 338 336 337 336 336 334 338 339 340
317 318 319 319 320 321 323 325 327 328 330 330 330 329 329 329 334 335 333 336 335 335 334 334 337 342 340 339 344 347 351 349 346 347 347 347 344 341 342 340 336 339 338 337 337 335 336 339 342
313 315 318 319 319 320 320 323 324 325 328 330 330 331 331 330 331 330 332 335 335 335 335 334 334 338 339 340 345 348 345 345 344 346 344 349 348 345 342 342 341 338 338 337 337 339 339 337 338
313 312 313 315 319 319 320 322 324 325 326 328 330 331 331 332 333 333 332 334 334 332 332 334 337 334 341 343 346 348 348 342 342 344 344 346 350 347 346 345 342 342 340 338 337 336 336 336 339
313 313 313 313 315 317 319 321 323 323 322 326 327 329 332 332 333 334 333 334 333 333 334 334 335 335 335 339 343 341 340 339 340 342 343 345 347 351 346 347 344 343 340 340 338 337 336 336 338
315 315 315 315 315 316 317 319 321 324 323 323 325 327 330 332 333 333 333 335 334 335 332 334 336 337 335 340 340 338 338 338 339 342 344 346 348 349 349 346 347 342 344 340 339 337 337 337 335
313 314 314 314 314 315 316 316 319 322 322 325 325 325 327 329 333 331 331 334 333 335 334 334 334 333 333 335 336 336 337 337 338 342 346 346 349 348 348 348 346 344 345 340 339 339 338 336 336
313 313 313 314 314 314 314 316 319 319 322 323 324 326 327 327 328 332 335 335 333 335 331 332 334 331 329 332 338 340 335 335 340 346 347 347 348 348 348 346 345 346 344 342 341 338 337 338 337
312 312 312 312 313 314 314 316 318 319 321 323 323 324 326 327 329 329 333 337 335 333 333 333 333 333 334 337 344 342 342 343 342 345 349 349 348 348 348 346 345 347 343 344 340 339 337 338 339
314 313 313 313 315 314 313 314 315 316 319 321 324 324 325 327 328 328 329 331 329 328 329 329 329 334 335 338 339 342 344 344 345 349 349 350 348 347 345 344 344 345 342 343 340 339 339 340 338
314 313 313 314 315 316 314 314 315 316 318 319 322 324 325 326 325 326 327 327 327 328 329 330 330 330 336 337 343 341 339 342 349 347 351 348 345 344 344 343 343 343 342 344 340 340 340 338 337
312 314 321 315 315 317 314 314 316 316 316 318 319 322 324 325 326 327 327 328 329 327 326 328 332 339 338 341 346 341 335 346 352 351 349 346 344 343 344 345 343 344 342 343 341 339 339 338 337
313 313 317 322 315 314 312 312 315 317 318 318 319 322 323 324 324 326 326 328 327 327 327 328 331 334 337 342 341 344 341 351 355 349 346 344 344 344 345 344 344 344 341 342 340 339 338 338 335
313 314 316 320 317 318 313 312 312 315 317 318 319 321 324 324 326 327 328 334 335 330 333 329 333 334 334 336 344 348 351 353 352 350 345 345 347 347 343 346 342 343 339 340 338 338 337 335 334
315 315 316 317 317 318 314 312 312 317 321 318 319 322 323 325 325 326 328 331 334 333 331 333 337 343 348 348 350 352 354 352 352 351 349 349 349 348 346 344 341 340 340 338 338 334 334 334 333
313 314 316 319 318 317 314 314 317 319 321 320 319 321 324 323 325 331 334 343 341 336 335 342 343 348 348 350 351 352 352 353 352 350 348 348 346 345 343 341 339 339 338 336 335 335 334 333 332
314 316 317 321 317 316 317 318 317 317 317 318 316 323 323 324 324 338 339 340 343 343 342 344 348 349 351 351 352 352 351 350 347 345 343 342 341 339 338 338 337 337 335 333 333 333 335 334 334